GFSNE_500_spd_000.txt.gz
Wind_Speed
74 75 75 74 74 75 72 67 68 70 61 52 56 56 51 55 49 46 50 51 46 43 47 47 49 48 51 50 51 55 57 59 60 62 61 62 60 57
77 78 79 78 78 78 73 70 66 66 61 54 57 55 57 56 52 48 48 50 48 44 47 47 51 50 54 51 51 53 56 58 61 60 60 62 59 58
76 77 76 75 77 76 75 70 69 66 61 62 58 57 57 60 54 47 49 48 49 50 47 48 51 53 53 51 51 53 56 60 59 59 60 59 58 60
84 82 73 65 67 77 77 74 66 61 59 63 55 56 58 57 52 47 50 52 52 50 48 48 52 52 50 50 52 54 57 60 58 58 58 58 59 62
86 88 87 84 81 81 80 81 73 70 69 61 52 54 59 58 57 49 47 49 48 48 48 48 45 47 48 49 52 55 59 58 58 58 57 58 61 64
82 81 80 81 82 81 79 78 72 66 58 57 51 57 53 59 54 51 50 49 50 49 49 46 43 45 44 49 52 56 59 57 57 57 56 59 62 64
78 75 76 75 75 75 74 73 67 60 55 59 55 55 54 54 54 52 47 48 48 52 54 45 41 44 45 49 52 55 56 56 57 57 57 60 62 61
81 77 76 75 72 70 67 64 62 57 53 55 47 54 55 55 50 49 48 50 48 50 56 44 43 44 47 51 53 54 55 55 56 57 59 60 61 54
81 80 77 74 72 70 65 65 61 55 53 54 57 54 55 51 52 46 48 43 42 46 53 51 48 47 50 51 52 54 55 55 56 58 60 60 56 51
79 79 78 75 71 69 66 62 58 55 54 56 57 54 49 52 52 47 48 42 38 42 45 46 45 47 51 51 52 55 54 54 55 59 58 56 51 49
79 77 75 74 69 65 62 53 48 50 49 45 43 45 49 48 46 45 47 42 36 41 44 42 45 48 50 51 53 53 53 53 56 57 55 50 49 46
77 73 69 67 63 58 53 48 46 42 39 44 44 42 43 42 42 40 44 37 39 44 44 37 44 49 50 53 53 53 50 54 55 53 49 48 46 47
73 69 62 57 52 47 49 46 37 44 41 41 42 38 41 39 40 37 37 34 38 37 40 38 40 44 50 53 52 49 50 54 52 47 45 45 45 41
59 58 52 42 41 46 51 47 42 36 37 38 38 37 36 37 33 32 28 32 31 30 41 37 46 52 52 51 48 49 52 53 45 42 41 44 36 35
50 46 40 36 41 43 43 45 40 35 38 34 34 26 22 22 24 29 24 24 32 32 33 38 47 52 49 48 46 50 50 47 42 41 42 37 31 32
41 43 43 41 40 38 39 46 38 36 32 22 28 22 17 21 16 22 21 22 32 38 39 44 48 47 46 45 48 47 42 40 41 41 34 30 31 26
36 40 42 41 38 33 34 39 32 30 22 23 21 23 21 19 21 22 21 24 28 31 39 42 44 45 45 46 45 39 39 40 37 32 28 31 28 28
32 37 38 35 29 27 30 34 26 23 24 24 19 14 21 19 17 22 23 24 28 35 40 43 45 44 45 45 41 37 38 34 29 27 28 30 31 27
30 32 32 26 20 20 28 29 28 22 29 21 19 20 18 15 15 20 24 27 31 36 40 44 41 42 42 39 40 38 32 27 27 30 30 31 32 30
28 27 23 18 17 20 24 29 21 18 16 16 14 19 14 19 13 19 24 28 34 37 42 39 39 40 37 37 40 32 25 30 31 33 35 36 34 32
25 23 20 19 10 11 20 20 16 15 14 13 16 18 16 17 17 20 25 30 33 38 36 36 38 35 36 38 29 32 35 37 39 39 38 34 30 28
23 23 24 26 16 7 20 20 14 15 15 23 25 21 15 13 18 22 26 29 33 32 33 34 32 34 29 26 30 34 43 47 45 42 37 31 31 27
23 24 25 26 15 10 18 21 14 11 14 15 19 21 17 16 18 22 24 28 28 29 30 30 30 22 25 28 35 43 49 48 43 35 27 22 18 18

GFSNE_500_spd_003.txt.gz
Wind_Speed
73 68 66 66 68 70 70 70 72 72 71 68 64 55 56 52 49 54 56 53 50 48 47 42 45 46 49 50 48 50 51 50 52 50 52 54 57 59
78 77 77 71 67 67 69 70 71 73 73 67 65 58 50 48 50 54 55 52 49 47 49 45 45 46 46 45 49 50 51 51 53 51 53 56 59 60
79 79 78 78 78 74 67 67 68 73 74 64 70 69 64 64 67 61 55 54 51 50 47 47 46 47 49 49 45 49 50 50 51 52 54 56 58 60
81 81 79 76 76 74 73 70 66 65 67 68 63 60 57 54 52 56 54 50 51 49 46 48 46 47 55 48 46 49 49 49 50 52 54 57 57 58
78 77 76 76 74 73 72 71 70 67 66 68 65 63 56 50 50 51 50 52 50 46 46 44 50 49 53 53 50 49 48 49 51 54 55 55 57 58
76 75 76 76 77 75 73 71 70 68 65 64 63 61 60 54 47 49 50 48 48 45 45 59 48 46 55 55 55 48 51 49 52 55 55 57 58 58
81 81 81 79 79 78 76 74 71 68 65 64 64 61 58 55 55 59 57 44 44 45 42 42 50 48 46 51 54 48 50 49 54 56 58 59 58 57
78 78 79 78 78 77 74 72 70 68 66 63 65 63 57 52 66 59 49 42 53 45 42 44 50 50 55 55 58 49 49 51 56 58 60 59 56 56
77 76 75 74 73 75 74 72 71 71 69 67 65 60 57 55 58 57 49 40 46 51 47 45 50 44 53 53 52 52 54 54 58 59 59 57 56 58
75 75 74 73 74 76 76 74 72 70 67 63 62 58 55 52 50 45 47 49 46 49 51 44 46 47 43 47 46 54 51 56 59 58 56 56 56 59
75 77 78 79 80 81 81 80 74 68 64 62 57 53 52 46 44 45 44 53 43 44 43 46 43 40 43 44 44 47 49 53 53 55 55 55 57 57
79 79 80 81 81 77 75 72 68 61 58 55 49 47 45 45 45 44 43 40 41 37 38 38 41 40 45 46 45 43 50 53 53 54 53 55 54 50
78 74 72 68 65 61 59 58 56 51 49 47 43 36 36 39 39 39 33 33 39 39 41 37 36 34 42 43 47 47 54 54 52 51 53 52 49 47
68 62 59 58 53 50 50 47 45 47 45 45 35 28 24 32 35 36 34 38 35 38 41 32 32 30 35 40 43 51 52 50 50 51 50 47 44 38
59 54 49 45 43 42 41 40 39 39 38 37 34 25 23 27 27 26 26 29 29 28 25 28 36 35 37 40 46 47 46 48 49 48 44 42 32 28
47 42 39 37 34 35 37 33 29 28 29 31 31 25 26 22 22 21 24 23 20 20 21 28 34 37 39 44 44 44 45 47 48 46 41 30 26 28
36 34 32 30 29 32 33 29 26 21 22 27 29 24 23 19 17 11 12 15 15 17 18 24 31 36 40 41 42 43 45 47 44 40 30 27 27 29
29 26 26 26 27 30 29 26 25 18 20 26 24 21 22 25 18 19 15 16 12 13 18 24 30 36 38 39 42 44 42 42 40 32 28 31 35 32
25 23 25 24 24 24 22 19 19 15 23 18 17 19 20 22 18 21 11 8 15 18 23 28 35 36 37 40 43 41 40 36 29 32 34 35 39 41
23 23 23 21 20 19 15 11 15 13 19 16 15 18 20 16 18 20 13 13 16 18 25 31 34 36 40 41 41 36 28 29 32 37 41 45 48 42
22 23 21 18 18 18 16 11 8 12 13 10 15 13 12 13 19 11 13 13 15 23 28 30 33 36 37 35 30 31 30 34 38 44 47 44 40 39
18 22 20 20 17 17 12 7 10 12 6 12 11 11 10 15 16 11 10 14 21 25 28 30 33 32 29 26 29 36 41 44 47 48 35 30 26 19
15 22 20 18 15 16 9 3 9 8 7 8 11 13 12 14 7 5 11 16 21 24 27 28 27 22 24 30 39 43 45 49 43 24 14 19 20 18

GFSNE_500_spd_006.txt.gz
Wind_Speed
81 82 82 81 79 77 75 73 74 75 74 72 72 68 65 64 61 60 53 50 47 47 50 53 51 44 41 38 42 43 45 46 44 46 43 44 47 49
86 86 84 82 79 77 76 73 70 72 73 68 67 69 66 65 63 59 59 56 55 55 56 54 55 50 47 42 45 43 47 52 46 47 44 46 48 48
85 84 83 82 81 78 77 77 76 74 72 69 63 61 61 61 59 59 56 52 48 47 47 50 51 45 47 45 45 47 46 49 52 49 48 48 48 49
85 84 81 80 79 78 78 77 76 73 73 72 65 58 56 55 54 55 53 56 48 49 45 48 48 45 43 45 45 46 45 50 55 57 52 50 49 50
82 79 79 78 75 74 74 75 73 73 72 71 69 62 59 57 56 53 50 52 49 48 50 53 48 47 43 44 43 46 50 57 53 59 59 53 52 52
81 79 77 76 76 73 73 73 72 71 70 68 67 63 60 55 55 52 51 51 48 47 51 51 48 50 42 40 48 53 47 51 56 53 63 56 54 57
72 72 71 72 72 72 74 72 72 70 68 67 65 63 59 56 55 53 52 51 49 51 49 49 53 57 58 47 54 51 48 46 60 58 56 55 53 53
70 69 69 70 70 71 72 71 68 67 65 65 64 62 59 57 56 56 54 50 52 53 43 48 49 45 40 42 42 46 50 49 56 60 54 54 52 53
74 73 71 72 73 73 71 70 69 69 70 69 68 63 62 59 58 58 56 54 51 53 56 45 42 47 39 49 52 56 57 54 51 59 57 59 55 55
81 80 79 77 78 80 77 74 72 72 72 72 72 67 65 61 60 58 56 54 51 49 42 45 47 44 45 45 49 54 50 45 51 57 57 55 52 54
84 82 79 76 75 77 77 75 73 70 70 68 66 63 59 57 56 55 53 50 45 45 45 41 46 51 42 47 45 44 41 43 48 50 51 51 54 57
82 78 73 70 69 67 68 67 66 65 62 58 53 51 52 51 50 49 44 41 39 39 38 40 38 44 42 38 39 38 38 41 49 50 49 53 58 54
77 71 66 63 62 60 60 58 56 54 49 48 44 45 46 46 46 39 38 36 34 36 39 38 35 39 38 33 36 32 37 43 47 49 49 54 51 50
69 62 57 52 50 48 47 44 43 42 42 38 39 35 32 33 32 30 27 28 35 37 37 34 33 31 35 32 33 35 35 35 38 43 47 48 49 50
53 51 48 43 40 38 35 33 34 35 34 30 26 24 23 22 27 28 22 27 33 36 35 35 32 36 33 32 33 34 34 36 40 44 45 47 49 45
41 41 44 38 33 28 26 27 28 29 25 21 22 21 20 21 28 24 24 23 27 33 29 31 27 21 22 26 29 32 38 41 44 45 47 48 46 42
31 32 33 32 28 23 22 23 22 20 18 17 20 21 16 21 27 18 17 17 18 23 28 24 20 21 26 28 32 35 39 42 44 46 46 43 40 35
30 28 27 27 24 19 18 15 14 16 18 17 17 15 19 23 21 18 11 15 13 13 13 15 17 19 22 26 32 38 40 42 44 44 41 34 28 26
29 26 24 22 18 14 12 11 13 13 14 11 11 14 19 16 15 14 14 19 16 13 14 16 17 21 25 31 35 37 40 41 38 33 28 30 34 36
26 24 20 14 14 13 9 6 3 11 5 5 10 11 11 12 12 14 21 20 11 9 13 15 19 26 30 33 35 34 32 28 29 31 34 37 40 43
21 19 15 11 15 11 8 8 5 0 4 5 8 6 8 10 13 19 21 16 9 11 14 19 25 27 30 33 31 26 25 30 36 39 41 43 45 41
17 14 8 15 13 10 10 7 6 7 8 7 9 12 6 13 16 16 12 8 9 13 17 20 25 28 28 25 26 30 36 39 43 43 39 32 23 12
12 9 13 16 13 10 11 3 4 11 12 14 15 15 14 15 11 5 2 6 10 14 18 22 22 21 24 30 35 38 41 40 31 19 13 16 16 15

GFSNE_500_spd_009.txt.gz
Wind_Speed
95 94 95 94 91 89 86 85 82 86 85 81 79 75 71 68 67 66 64 64 63 61 56 57 54 55 52 54 54 53 50 47 45 44 45 45 45 39
99 97 94 93 93 90 87 84 80 79 85 82 81 75 70 67 63 63 63 62 60 60 55 53 53 52 55 54 58 60 56 50 48 47 46 46 49 46
97 94 92 92 90 88 84 78 77 74 76 74 71 67 65 63 60 58 58 58 60 57 58 59 55 52 50 47 52 60 55 49 48 47 49 47 53 49
87 82 78 77 76 73 72 72 72 72 74 73 64 65 63 58 58 57 55 56 57 55 55 55 54 55 52 48 55 51 47 46 47 48 51 49 50 48
72 70 68 68 67 67 67 68 69 68 69 71 70 63 61 60 58 58 56 54 53 51 55 54 57 56 52 56 66 53 52 48 46 46 48 55 49 65
66 66 65 66 67 67 68 68 69 69 68 69 69 64 61 59 62 59 58 56 53 55 54 53 57 56 62 56 48 53 49 50 49 47 55 55 59 61
67 69 69 71 74 75 75 73 75 75 73 71 69 65 61 57 56 55 56 54 50 52 53 52 59 59 61 61 58 51 53 53 56 55 55 51 55 58
75 75 76 77 79 80 79 79 80 80 76 75 72 69 62 60 57 57 57 56 54 54 55 53 58 60 65 59 50 51 58 57 59 62 54 49 49 57
82 83 83 85 85 84 82 81 80 79 79 76 74 69 66 63 62 60 60 60 56 52 54 51 51 56 60 49 55 36 44 55 55 54 50 53 49 56
91 91 90 88 86 84 80 76 73 71 68 67 69 66 62 60 60 58 57 56 53 50 53 49 47 48 51 46 54 43 39 48 53 55 54 57 53 57
95 91 89 85 83 81 76 70 65 61 59 56 56 56 55 50 50 53 53 54 50 49 50 48 42 43 45 37 36 38 43 36 41 47 47 52 50 50
91 84 78 74 70 68 65 62 58 53 48 44 46 46 45 43 43 45 47 47 46 45 37 38 35 37 41 43 33 36 42 47 42 43 44 42 47 47
73 65 59 55 53 52 50 51 50 46 38 35 34 35 36 36 37 40 44 44 35 30 29 32 30 31 30 39 33 34 33 43 39 37 37 38 43 44
51 43 41 40 40 41 39 40 40 38 31 26 24 23 25 28 30 33 32 30 27 24 23 25 28 24 27 32 33 32 34 36 33 30 32 34 39 42
43 40 38 37 36 34 34 33 33 29 23 19 15 14 17 21 25 28 28 24 18 20 22 19 23 22 28 30 32 31 34 37 33 32 31 34 38 41
35 32 32 33 33 31 28 27 25 20 17 12 11 13 18 22 25 23 20 14 16 23 24 22 27 28 29 29 30 33 31 29 29 31 35 38 40 42
33 31 31 31 30 29 25 20 15 12 9 9 11 14 18 21 15 10 13 17 21 21 21 24 26 27 26 27 25 25 25 27 30 35 39 41 43 44
34 33 31 28 26 23 16 8 7 6 7 9 14 12 16 17 9 3 11 15 14 13 14 19 23 24 22 18 19 21 26 32 36 39 41 43 43 39
35 31 27 23 21 13 4 6 5 4 7 15 15 9 10 9 11 12 13 11 12 16 20 21 19 18 19 20 22 26 29 33 37 40 40 38 34 29
36 27 23 20 13 4 7 6 4 6 15 20 5 8 10 12 10 12 9 13 18 19 18 17 17 17 18 20 24 28 32 34 35 36 33 30 32 33
33 23 18 14 4 7 5 4 4 12 17 6 5 6 9 10 11 9 13 20 20 15 13 13 16 19 22 25 27 30 32 32 30 30 33 37 39 40
27 16 14 4 8 6 3 1 8 13 5 6 3 8 11 9 9 12 17 19 15 12 13 16 19 21 23 23 22 23 27 31 33 36 38 39 38 37
16 10 5 9 7 2 3 5 12 5 5 7 10 16 16 16 14 12 10 9 11 15 15 15 15 15 18 22 24 27 29 31 31 32 29 21 14 13

GFSNE_500_spd_012.txt.gz
Wind_Speed
102 104 104 102 101 101 97 91 88 94 96 87 83 78 76 73 70 71 73 73 71 71 68 69 70 68 64 62 61 57 59 62 59 64 59 57 53 48
105 103 102 100 98 93 83 74 72 75 79 71 70 70 67 65 66 67 70 69 70 70 70 70 69 67 63 61 62 59 51 54 61 63 67 63 57 52
100 98 95 89 80 70 67 65 65 67 71 64 65 64 67 67 66 65 65 67 67 66 69 67 65 65 66 64 67 60 58 60 58 62 63 63 60 58
89 84 78 73 68 66 65 63 65 66 69 69 61 60 62 64 67 66 65 64 62 63 66 64 64 62 61 61 63 64 60 56 60 58 55 63 60 59
79 75 72 70 68 68 69 70 72 73 75 77 72 69 67 65 64 64 64 63 63 62 61 64 63 62 62 60 59 59 57 59 55 50 57 61 59 56
76 75 75 75 75 74 75 78 81 82 82 83 83 79 76 71 71 68 63 63 62 60 60 64 64 61 63 64 63 62 63 62 63 68 62 58 56 53
76 77 79 81 82 83 84 84 88 90 90 90 90 87 83 78 77 74 71 63 58 61 62 60 64 66 66 61 62 62 64 62 65 71 55 56 56 55
85 86 88 90 92 93 94 95 96 96 94 92 89 86 79 75 70 69 70 67 58 58 58 55 54 55 58 61 63 65 66 66 66 58 63 54 60 54
93 93 93 92 93 94 93 93 92 88 87 85 81 76 70 66 63 62 62 63 59 57 60 52 55 53 54 58 60 62 65 64 59 53 55 57 64 52
83 79 75 76 77 78 78 78 75 72 69 67 65 64 61 57 53 52 51 53 55 55 60 55 56 56 58 59 60 61 61 60 53 52 53 47 56 56
69 64 67 67 65 62 62 61 57 52 51 49 49 50 52 47 44 43 42 45 47 50 51 54 53 54 55 55 57 58 58 54 47 41 47 39 46 57
58 58 58 60 58 54 52 50 46 41 38 34 35 38 41 39 34 34 34 37 39 39 41 48 48 50 50 49 50 53 52 44 43 40 38 41 40 47
53 51 52 52 50 47 44 42 40 36 31 28 24 27 30 27 23 24 28 31 31 29 31 37 38 39 41 37 40 43 45 40 36 35 36 39 39 38
52 50 49 47 45 43 41 41 39 36 29 21 17 15 15 14 17 20 22 25 26 24 22 21 24 29 31 31 31 38 38 43 33 31 35 39 41 41
47 43 46 44 41 41 42 40 35 28 23 15 7 7 10 12 14 19 23 26 22 15 11 14 16 22 26 29 34 33 33 34 31 28 34 38 38 37
42 40 45 44 41 41 38 36 30 23 12 4 1 3 6 10 16 21 19 15 13 11 10 10 13 15 26 28 26 24 30 32 32 32 34 36 34 32
43 41 43 41 36 36 35 32 23 10 4 5 4 4 7 13 17 12 10 10 8 8 11 14 15 19 21 22 23 24 26 26 28 33 33 31 33 33
43 40 41 36 32 30 28 20 8 5 7 7 11 12 8 11 11 10 7 5 7 10 5 2 10 17 19 18 18 20 24 28 30 30 29 30 31 34
40 38 37 31 28 27 15 4 7 11 14 18 24 18 3 13 9 4 0 6 7 4 2 5 8 12 15 17 19 22 22 21 22 24 28 32 36 37
34 35 31 25 23 11 3 7 11 14 19 24 21 5 7 6 6 5 7 7 4 4 9 15 17 17 16 15 14 16 19 22 26 29 32 33 34 34
30 28 24 19 8 2 5 9 14 19 24 15 6 4 5 6 7 6 6 6 11 12 13 12 11 11 12 15 18 22 23 25 27 28 28 28 27 28
25 22 16 9 2 4 8 13 19 24 14 12 10 6 4 3 2 5 9 11 12 11 10 11 13 16 18 20 20 21 21 22 22 23 26 29 32 35
20 15 10 4 5 7 11 17 23 13 15 18 18 20 17 14 11 8 7 8 10 12 16 16 15 15 14 15 18 20 21 23 26 29 31 32 33 35

GFSNE_500_spd_015.txt.gz
Wind_Speed
95 97 99 102 104 103 100 97 94 98 96 84 80 71 69 65 64 65 66 68 69 72 76 80 83 84 85 84 85 75 54 59 66 63 67 66 65 66
97 100 102 103 100 96 90 84 81 82 83 70 65 65 62 60 59 61 61 61 64 69 74 79 82 85 85 84 83 83 78 81 62 71 69 66 66 68
100 100 98 95 89 84 80 79 79 81 84 75 71 65 64 63 60 59 59 58 58 60 65 72 71 68 76 84 80 76 78 76 70 66 56 59 60 61
98 93 86 81 79 79 80 80 81 81 85 85 77 72 72 70 68 65 65 63 62 60 61 63 69 70 70 66 78 82 75 73 75 74 63 49 57 57
89 84 84 87 87 87 87 88 88 88 88 91 89 82 80 78 77 74 72 71 68 66 65 63 63 65 68 67 63 71 72 71 69 72 79 69 58 56
84 88 90 89 88 86 87 88 89 91 92 95 96 94 91 87 87 85 82 80 76 75 71 67 66 66 65 65 65 61 65 66 65 68 71 74 79 50
89 91 88 84 82 80 79 78 78 77 77 79 81 85 88 90 90 89 90 86 81 78 73 70 69 69 65 61 63 60 63 64 63 65 66 66 62 62
91 85 79 76 74 69 67 69 72 74 74 75 72 71 71 72 71 75 77 75 72 68 69 63 65 66 67 62 58 60 62 64 61 64 66 66 63 57
85 78 72 69 64 63 64 62 63 63 64 64 58 52 51 49 53 53 57 58 59 57 58 57 59 59 64 63 58 57 61 63 65 64 62 60 57 55
76 71 67 60 61 65 62 60 56 53 52 50 49 46 44 41 41 40 41 43 45 44 48 47 50 55 60 60 58 56 57 56 58 59 59 57 53 54
68 66 60 59 61 62 60 56 51 48 46 46 44 43 42 36 35 32 30 34 32 30 39 40 41 48 55 57 57 55 52 50 48 47 48 50 45 42
64 61 58 59 58 56 56 55 50 48 45 38 37 37 37 33 29 25 22 23 23 20 31 34 36 41 47 53 55 54 52 50 48 49 49 48 43 39
62 59 55 54 52 51 54 56 51 46 40 38 31 27 28 26 20 16 13 16 15 14 24 28 31 35 41 45 51 52 51 50 49 48 46 41 39 37
62 57 53 49 49 49 52 53 47 42 38 33 28 22 14 12 9 8 13 18 13 11 17 20 23 29 35 41 44 46 46 46 47 47 45 44 45 43
59 54 50 47 47 46 48 47 42 39 32 23 13 9 10 10 12 12 11 15 15 11 9 12 19 27 32 36 37 40 42 40 42 41 42 43 44 40
54 48 46 43 41 43 44 40 38 29 15 9 9 10 9 9 11 12 15 15 7 5 5 11 17 22 25 26 28 33 32 34 35 40 40 41 32 36
49 42 42 36 34 37 35 33 22 12 14 13 11 11 14 12 13 13 6 6 2 3 2 4 8 15 20 21 28 29 27 32 35 36 40 36 28 31
43 44 38 33 34 28 24 14 11 13 15 20 24 24 11 12 8 2 3 2 3 6 7 3 6 12 17 22 24 27 31 32 35 36 35 35 32 31
45 38 34 33 26 20 10 10 12 18 25 30 23 9 7 4 4 6 4 5 3 2 5 12 9 13 17 21 23 24 27 27 27 29 29 28 31 33
35 35 31 25 17 10 9 12 18 26 27 16 13 9 5 4 5 5 7 6 6 8 8 9 9 13 15 14 17 17 18 19 21 23 26 28 29 30
34 30 23 14 9 9 11 19 27 20 16 16 14 13 8 5 5 5 8 12 14 12 10 11 12 12 12 13 15 17 18 20 20 22 24 26 29 33
30 22 13 9 10 10 17 24 16 19 21 21 20 18 17 17 17 15 12 9 7 5 4 4 6 8 9 12 15 17 21 24 27 26 26 28 28 26
21 11 9 10 8 16 22 17 17 18 19 20 21 19 16 14 11 8 5 2 2 4 6 7 9 9 10 11 11 11 13 15 17 20 22 24 26 29

GFSNE_500_spd_018.txt.gz
Wind_Speed
88 92 94 97 100 103 104 104 107 110 109 100 98 91 91 85 81 77 72 68 67 68 68 69 72 79 84 90 92 98 108 79 88 73 73 69 59 54
94 96 98 101 100 100 100 99 96 98 103 95 90 88 88 86 82 79 76 71 69 65 66 67 67 68 70 79 86 92 97 101 111 92 68 70 79 64
97 99 100 100 100 99 97 94 94 97 100 90 88 80 83 87 87 87 82 77 72 70 70 66 64 62 62 65 75 81 87 93 99 99 94 78 75 68
99 100 100 100 96 93 91 92 92 90 90 89 82 78 72 72 77 85 89 87 81 75 74 71 67 65 63 62 61 66 72 74 83 93 93 90 93 91
99 99 97 94 89 87 89 88 85 83 81 79 71 68 64 61 66 69 72 77 87 86 81 77 75 71 66 63 62 62 64 68 73 70 88 87 94 82
96 94 91 87 86 88 85 80 78 76 72 70 70 67 64 62 66 69 71 70 74 79 87 85 81 77 73 68 65 64 65 65 63 67 61 77 85 82
93 89 83 85 86 84 78 74 72 69 67 70 69 65 62 61 60 61 63 62 61 67 74 83 86 83 79 77 72 68 69 68 64 59 61 61 73 75
85 79 82 85 83 75 70 69 69 66 68 67 62 60 57 58 57 56 54 50 46 44 56 64 74 79 81 81 78 75 71 69 66 60 55 62 66 73
80 80 81 83 75 69 66 66 63 63 61 60 61 58 57 56 55 51 46 44 37 32 39 46 52 61 66 69 68 67 66 67 67 60 54 56 53 58
81 82 83 75 69 67 65 61 58 56 56 57 61 59 57 53 52 48 41 34 26 24 28 28 35 41 48 50 52 54 56 61 62 55 51 47 48 54
80 84 76 69 67 65 63 58 54 51 52 55 57 53 52 49 46 40 32 25 15 13 17 19 24 29 35 39 42 46 49 51 54 51 46 42 41 46
80 78 68 67 65 61 59 57 53 50 49 49 44 45 46 41 38 34 27 12 2 2 10 15 18 19 22 27 32 37 41 45 47 45 42 40 40 40
80 69 65 63 59 54 53 55 52 47 46 41 38 35 31 26 22 23 24 13 6 7 10 14 15 15 17 21 25 30 34 38 41 39 35 34 34 36
72 61 58 55 48 46 49 46 43 43 36 29 22 18 16 18 18 19 19 15 12 8 8 10 11 14 15 18 22 25 28 33 34 34 31 30 30 32
62 56 50 48 47 45 40 40 37 27 16 15 17 17 18 16 16 17 17 17 16 13 4 5 9 13 14 19 23 24 27 30 31 32 32 31 31 30
55 50 51 47 41 36 36 32 19 12 14 14 14 17 18 20 21 18 17 15 12 9 4 4 9 14 16 18 21 24 26 27 29 30 30 31 30 31
49 48 42 38 36 33 27 15 12 16 20 26 31 24 18 18 16 13 10 7 5 3 3 2 4 7 13 13 18 21 24 26 28 28 29 29 32 35
45 40 39 35 28 20 10 14 20 24 31 31 19 10 10 10 9 7 7 7 7 7 4 2 5 13 13 17 18 18 24 25 27 28 30 31 32 32
41 37 33 27 17 8 12 17 24 29 20 15 13 12 10 9 8 9 10 9 8 9 8 11 12 12 13 14 16 21 25 25 26 29 33 34 31 36
35 31 25 15 7 12 19 25 21 15 15 15 14 13 12 10 9 9 11 12 12 13 13 13 12 12 10 17 19 23 21 21 22 26 29 29 33 34
28 23 13 7 11 17 24 15 14 14 15 17 18 17 15 14 15 15 16 16 14 11 10 12 13 14 14 14 18 20 22 25 27 30 33 33 31 29
21 10 5 10 15 21 11 13 13 14 15 16 16 16 15 15 15 15 14 12 11 10 8 7 7 9 10 10 13 15 18 19 21 22 22 25 27 27
8 4 9 14 17 10 11 12 12 13 15 15 11 9 8 6 5 4 5 5 3 2 1 3 4 6 9 12 14 16 16 15 16 18 19 21 23 26

GFSNE_500_spd_021.txt.gz
Wind_Speed
83 86 88 90 92 95 98 103 109 109 105 101 101 99 100 100 95 92 90 89 88 87 84 82 77 72 72 74 77 80 86 93 98 98 99 94 91 87
86 88 91 93 97 101 104 107 108 109 109 100 95 90 87 88 89 88 85 83 83 83 83 84 83 77 73 73 72 74 76 82 89 99 107 105 89 97
89 92 95 99 102 105 108 107 105 103 102 95 89 83 79 80 79 79 76 71 68 66 67 70 75 81 79 74 72 72 73 73 77 86 96 107 104 96
92 96 99 104 107 107 105 102 98 93 92 92 85 81 75 69 67 66 66 67 69 66 65 65 66 69 79 80 74 72 71 71 72 72 78 91 98 96
97 101 104 106 105 102 99 94 89 89 88 89 83 74 68 64 63 64 66 65 63 63 65 67 69 71 71 79 80 75 73 71 68 67 67 66 80 84
100 103 103 102 99 96 90 86 86 87 85 80 75 69 67 60 62 62 60 59 56 58 64 63 63 65 70 73 81 79 76 73 69 65 62 59 59 72
101 100 99 96 91 86 85 84 85 84 77 72 68 67 63 59 58 58 62 56 50 58 59 55 57 55 54 66 72 83 79 76 71 66 63 61 59 55
99 96 91 85 82 81 82 84 82 77 72 69 65 63 59 57 57 59 58 53 45 45 49 44 47 43 42 50 65 78 82 79 74 69 64 60 57 55
93 88 82 78 79 81 82 79 72 70 67 64 60 59 57 56 58 55 50 48 41 33 40 32 32 31 32 36 52 64 80 79 76 71 67 62 58 55
83 80 79 77 79 83 79 70 66 64 60 55 56 53 53 55 55 50 45 36 28 27 30 19 19 18 21 25 37 50 66 77 74 71 69 65 61 56
77 76 78 79 81 77 69 65 60 54 52 52 49 48 50 52 51 43 30 23 14 11 12 13 13 16 20 22 26 35 44 56 65 67 67 65 62 56
72 74 77 81 76 64 62 59 58 54 48 41 42 44 44 37 32 29 24 19 10 3 15 9 10 15 11 12 16 20 26 34 40 44 49 52 54 52
73 74 77 74 61 56 56 53 49 44 41 37 30 25 23 23 26 26 23 18 8 8 15 13 10 7 10 7 8 12 16 20 25 29 35 41 44 42
76 77 73 57 51 50 47 46 44 39 30 21 21 24 26 28 28 26 24 23 19 12 10 11 7 9 8 8 7 8 11 16 21 25 29 34 36 38
80 73 54 45 45 45 45 41 33 23 19 22 24 28 33 33 31 29 27 21 18 11 9 7 6 6 4 8 10 11 14 20 24 27 29 30 32 34
70 49 41 41 40 43 37 31 21 23 26 30 34 29 25 22 18 14 12 11 9 6 4 4 4 5 5 7 9 13 18 23 26 28 28 27 29 32
44 37 36 36 36 33 28 22 25 31 34 29 22 18 14 13 12 11 11 10 9 8 8 7 4 6 6 6 8 12 18 23 26 27 27 27 26 33
37 33 32 33 29 21 17 22 30 26 21 20 16 14 12 12 13 13 11 10 11 11 9 6 3 8 6 9 8 15 20 22 24 26 27 27 28 29
32 31 30 27 18 16 22 24 16 19 16 17 18 18 16 15 16 14 13 13 13 15 15 9 6 7 9 10 9 14 19 19 21 25 26 30 26 26
32 26 24 16 14 20 19 15 16 16 16 16 16 17 16 15 14 14 15 16 16 16 17 18 14 10 12 12 13 14 19 23 23 21 30 28 26 33
23 21 13 13 18 16 15 14 13 12 12 14 16 15 14 13 12 13 14 15 15 14 13 16 18 13 11 16 17 15 16 21 23 24 27 22 27 24
18 11 12 17 13 14 14 14 13 14 15 15 15 14 14 13 12 12 13 12 11 11 12 13 13 15 17 14 17 21 22 19 19 23 27 27 29 29
10 11 15 12 14 13 13 13 13 14 14 15 14 13 11 9 8 6 4 3 3 4 7 8 7 7 8 12 15 15 16 19 21 21 23 28 28 29

GFSNE_500_spd_024.txt.gz
Wind_Speed
77 79 82 84 87 91 94 99 105 106 102 103 107 103 103 103 102 99 95 89 86 84 83 83 81 81 81 80 80 80 82 83 81 82 93 95 99 97
80 82 84 88 92 97 102 105 109 112 113 105 103 99 96 95 91 90 87 83 79 77 76 74 73 74 74 73 70 70 74 80 81 77 82 90 94 98
81 85 89 96 100 104 107 108 107 107 108 100 95 90 84 82 81 82 83 79 74 71 70 68 66 64 64 64 63 63 63 73 82 78 76 83 86 86
87 93 97 102 105 108 108 106 104 100 99 97 88 83 82 78 77 76 73 70 68 67 65 62 60 61 64 65 64 63 62 63 76 81 78 77 80 72
94 99 104 107 108 106 102 99 95 92 88 89 86 82 80 78 74 67 65 62 61 61 61 59 60 63 61 58 58 59 61 63 64 80 78 78 75 67
101 103 106 106 102 97 93 89 88 86 84 85 84 81 76 67 68 65 60 54 53 56 57 58 62 60 57 58 60 62 63 64 67 69 81 76 72 66
101 105 104 97 90 87 85 83 82 83 82 83 81 73 65 61 58 55 55 51 47 53 54 51 55 55 56 57 58 59 61 62 66 70 79 77 72 65
106 102 93 87 82 79 78 78 79 82 84 78 71 64 60 60 57 55 51 47 41 45 50 44 50 45 45 45 46 48 51 53 58 67 74 78 72 66
98 90 82 78 77 75 75 75 77 79 69 68 66 63 59 56 53 49 46 42 37 33 39 31 34 31 30 28 31 34 37 41 46 59 70 77 71 65
85 80 76 73 73 76 77 78 78 64 58 58 57 54 51 50 47 37 30 23 18 23 31 18 18 14 20 24 29 33 32 29 34 50 63 74 68 64
77 73 73 74 76 79 81 78 63 52 51 52 52 50 48 38 33 29 26 17 13 19 21 14 13 14 18 21 30 32 23 19 23 41 56 70 66 63
72 72 74 79 81 80 72 57 48 47 48 42 38 34 31 33 35 37 34 24 17 14 23 23 23 23 19 18 20 17 12 10 16 29 47 65 63 62
75 76 79 80 72 59 46 45 45 45 35 28 26 31 34 37 41 44 44 38 24 15 20 22 16 19 18 11 16 12 5 4 12 22 39 59 60 59
81 80 71 58 47 41 41 41 39 28 23 28 33 36 39 39 36 31 26 20 16 12 9 15 14 16 13 10 5 3 5 9 13 18 28 46 56 57
75 60 49 43 40 39 38 34 23 24 30 35 32 26 24 21 17 17 20 18 17 14 14 15 13 12 7 3 3 10 12 15 17 19 25 30 40 49
50 43 40 38 39 36 28 22 27 32 30 27 25 21 18 18 19 18 19 18 19 18 14 12 11 11 8 6 9 14 15 18 22 24 26 27 31 35
41 39 36 34 30 23 21 27 30 24 24 21 20 19 19 19 18 17 17 16 15 15 15 12 6 7 8 11 14 17 19 22 24 27 30 32 33 36
40 35 30 27 19 17 23 22 20 19 20 20 21 20 19 18 18 18 17 16 18 19 18 15 7 8 14 16 19 20 22 24 28 31 34 34 30 33
35 28 25 17 17 23 17 18 15 17 18 17 18 19 19 19 18 17 16 17 19 22 18 15 15 13 18 18 20 22 23 25 28 29 29 28 30 23
27 23 16 18 21 15 16 15 16 16 17 18 19 19 18 16 16 16 16 17 17 18 21 17 14 14 14 17 18 21 24 25 28 24 19 25 33 25
20 15 17 18 14 16 16 16 16 17 18 18 18 18 18 17 17 17 16 17 17 17 18 19 14 12 14 17 18 20 22 24 25 23 28 28 25 25
14 17 17 15 15 15 15 17 18 19 20 20 19 18 16 14 13 12 12 12 13 13 14 16 16 11 11 14 17 17 18 17 20 26 30 25 24 22
17 14 15 14 15 17 19 19 18 18 18 19 19 19 18 15 13 11 9 6 5 5 6 8 11 12 11 10 12 16 20 19 20 28 26 23 28 29

GFSNE_500_spd_027.txt.gz
Wind_Speed
70 71 73 76 80 84 89 96 101 100 97 99 107 108 109 108 105 103 100 96 93 89 86 84 82 81 80 78 79 79 80 80 81 82 84 86 90 97
70 73 76 81 87 93 98 104 109 113 111 107 105 103 101 100 96 93 90 87 82 80 79 78 76 77 76 74 74 75 76 75 75 75 76 79 81 87
74 79 84 90 95 101 106 110 113 113 112 103 96 92 87 86 83 83 85 82 81 78 78 76 73 71 70 69 68 68 68 69 69 69 70 74 80 84
81 86 92 97 102 107 110 112 110 104 101 97 86 82 78 73 72 74 78 79 77 72 71 67 64 64 64 63 63 63 63 64 65 65 65 65 68 76
89 94 100 105 109 111 111 107 99 93 88 86 82 74 72 73 73 74 70 63 63 62 60 60 61 59 59 59 60 61 61 61 61 64 64 66 66 67
96 101 105 110 113 112 103 95 89 85 81 79 78 75 74 75 73 65 58 60 60 60 57 55 56 56 56 59 59 60 59 60 60 62 62 61 63 65
100 105 110 114 108 98 91 85 82 79 78 79 79 79 76 64 58 56 55 49 46 50 51 51 53 52 53 54 54 52 52 52 55 59 61 61 61 63
106 110 115 107 94 87 81 79 80 82 83 84 81 71 56 55 55 54 46 39 34 37 41 36 42 39 42 43 42 41 40 41 44 50 56 63 66 64
110 114 104 93 86 79 76 79 81 81 75 68 56 49 50 52 44 33 24 27 28 30 32 25 33 32 32 27 25 25 27 31 33 37 44 52 59 63
114 104 92 84 80 82 83 80 70 56 47 43 46 46 44 35 31 29 29 28 27 28 34 30 30 25 21 20 25 27 31 36 33 32 30 41 51 60
102 89 86 86 85 79 69 56 46 40 40 40 40 37 33 38 42 41 42 38 29 25 36 30 28 19 22 24 28 29 30 30 31 29 30 33 40 50
86 85 83 77 65 51 48 43 40 38 34 29 27 31 38 42 44 41 34 25 22 17 30 27 27 25 22 25 28 31 30 29 24 20 21 25 32 45
85 78 67 55 46 43 40 39 36 29 23 28 32 33 30 28 28 28 27 26 21 17 22 21 21 22 21 20 22 18 15 11 9 8 10 15 30 46
73 63 51 44 40 37 36 32 24 27 29 25 25 26 24 24 25 25 26 27 24 21 17 18 19 18 17 15 8 4 8 11 13 11 4 16 29 48
61 50 45 39 35 32 29 22 27 24 23 25 24 24 23 22 23 25 25 24 24 23 20 16 15 16 13 9 6 11 22 20 19 15 14 17 36 49
48 45 37 32 30 24 23 28 24 24 22 23 24 23 23 23 23 22 22 23 25 25 20 14 9 11 10 8 9 16 20 12 6 19 21 23 40 45
45 35 29 26 20 23 28 23 22 22 22 22 22 21 22 23 23 23 22 22 26 23 21 13 10 10 9 12 16 19 14 8 13 12 11 19 35 42
33 27 23 17 21 22 18 20 19 19 20 20 20 20 21 21 22 22 23 23 24 25 19 15 13 11 11 14 16 14 18 21 22 25 14 18 24 35
28 22 18 22 20 16 17 17 17 18 19 20 21 21 20 20 21 20 20 22 23 24 17 14 15 11 12 13 14 18 23 25 27 28 25 22 25 28
23 18 22 18 16 15 17 18 19 21 23 23 23 22 20 18 18 18 19 20 21 22 18 13 13 12 13 13 15 18 21 25 27 22 20 19 20 24
17 21 15 16 15 18 21 21 21 19 18 20 23 23 22 19 16 15 14 15 17 17 19 14 13 11 12 14 16 18 23 23 22 19 30 28 28 21
19 15 16 17 20 20 19 18 16 16 20 21 22 23 24 21 17 12 10 10 11 12 12 13 10 11 14 17 20 20 21 22 19 23 25 28 25 21
16 15 19 20 20 18 18 18 18 19 20 21 21 20 26 23 14 10 6 5 4 6 7 7 9 8 8 12 16 20 20 17 23 24 24 27 26 26

GFSNE_500_spd_030.txt.gz
Wind_Speed
68 67 69 71 74 80 85 90 95 95 93 96 103 109 115 119 119 117 113 109 105 102 100 98 95 92 90 89 89 87 90 90 92 91 91 93 98 101
67 69 73 78 83 87 92 97 103 109 110 106 110 116 119 117 111 106 101 97 92 88 86 86 84 82 82 81 80 81 81 81 81 80 81 82 85 88
70 75 79 84 88 94 99 104 109 115 120 116 117 114 107 102 97 95 92 87 84 79 78 79 80 79 77 77 76 75 75 77 76 76 79 78 80 82
76 80 84 90 95 101 107 111 116 119 124 122 109 96 89 82 80 80 80 80 81 79 79 74 69 67 69 70 68 67 68 68 69 71 71 71 72 72
81 86 93 99 104 109 113 118 122 121 112 103 95 85 80 79 77 78 78 77 76 70 61 60 62 64 63 64 66 66 65 63 60 59 62 62 64 66
88 95 100 106 110 114 120 123 116 103 96 93 91 87 85 82 80 76 67 58 52 53 55 58 57 56 56 57 57 57 56 54 54 55 56 58 60 62
95 100 105 110 114 121 120 106 97 95 93 88 81 75 67 60 53 45 40 42 43 40 39 38 41 42 43 43 44 44 47 49 49 50 53 56 59 62
100 105 110 114 119 112 97 93 91 84 70 64 55 48 44 45 43 40 30 27 23 30 38 34 42 41 39 39 38 33 31 31 33 37 42 48 54 57
106 110 114 116 104 92 88 81 68 55 52 49 45 46 43 38 30 30 35 36 35 36 45 39 44 42 43 40 38 28 23 20 22 22 23 29 35 45
109 114 112 97 88 83 75 61 48 45 44 44 42 37 34 37 41 38 32 24 24 28 41 35 36 37 38 33 34 29 26 25 26 28 28 32 31 41
112 106 91 86 77 69 57 47 42 41 37 33 35 39 41 38 36 30 25 23 19 25 28 26 28 25 25 26 29 28 27 29 30 36 38 42 41 37
100 84 80 73 63 54 48 43 38 29 27 32 32 31 31 29 30 33 32 28 26 24 29 25 25 25 22 24 22 23 22 26 30 31 30 30 35 36
82 75 67 59 52 46 42 36 27 30 29 25 24 24 26 28 28 28 29 27 24 26 26 23 22 20 22 16 18 18 16 11 12 17 16 18 22 25
75 64 55 51 42 37 32 25 30 24 22 22 24 26 25 25 26 26 27 29 32 32 27 21 18 14 19 15 10 8 9 10 18 21 25 15 11 16
62 52 50 40 33 30 24 27 20 19 21 23 23 23 24 23 24 26 28 28 32 33 27 18 13 12 15 9 10 7 7 9 12 18 17 11 4 16
49 44 37 32 26 25 26 22 20 21 20 21 23 23 23 24 24 24 25 25 27 28 22 14 10 13 11 9 8 11 16 10 8 11 13 8 19 31
42 36 31 23 26 26 22 21 21 20 21 23 23 24 24 23 24 23 24 26 28 20 17 17 13 12 11 11 15 20 20 23 24 14 15 24 36 44
35 28 22 26 22 19 20 22 21 23 25 26 26 25 24 24 22 23 23 25 25 17 15 18 15 13 14 16 19 18 14 18 22 21 25 31 36 38
27 22 26 21 22 19 22 22 23 22 20 21 22 23 24 22 21 20 21 21 23 16 11 15 16 15 17 18 19 22 25 23 26 26 23 28 30 34
22 25 22 22 20 23 23 21 19 16 19 21 23 23 26 23 19 17 17 18 18 18 10 12 15 14 16 19 19 18 17 32 23 28 23 23 27 28
23 21 21 21 22 20 19 18 18 19 20 22 24 24 26 26 17 13 13 13 13 15 12 10 10 11 14 20 19 17 21 19 22 21 19 23 20 26
18 19 21 18 19 19 20 21 24 26 26 24 22 22 22 25 21 13 12 9 8 9 11 7 10 11 13 19 21 17 14 20 17 17 26 21 19 22
19 18 18 21 22 23 25 26 25 25 23 19 17 19 20 22 19 13 10 6 4 4 5 8 6 9 11 16 19 18 16 18 20 24 30 22 19 19

GFSNE_500_spd_033.txt.gz
Wind_Speed
68 70 67 68 69 74 79 85 90 90 87 94 102 107 115 119 124 128 130 129 125 119 111 105 102 99 97 96 96 95 95 94 95 96 97 99 100 102
68 66 67 70 75 80 85 90 96 102 104 104 111 120 125 128 130 128 123 116 107 101 96 94 91 86 83 82 80 80 82 84 84 84 86 88 88 88
66 68 71 76 81 85 91 97 103 112 118 117 122 124 124 121 114 108 104 99 95 90 87 85 83 80 78 77 75 73 74 76 76 78 80 80 80 81
68 72 77 82 86 92 98 106 112 118 125 129 122 110 102 95 92 90 87 87 86 81 77 76 74 74 73 71 70 68 67 65 67 69 71 72 73 75
74 78 82 88 93 101 107 113 118 123 122 112 101 94 87 75 68 62 59 56 56 54 50 49 50 50 50 52 55 57 58 60 62 63 60 65 68 67
79 84 90 96 103 108 114 120 124 114 101 93 87 76 62 55 52 49 44 46 45 45 44 45 45 44 42 41 40 41 44 46 49 52 55 56 59 62
85 91 97 102 108 114 120 118 104 93 85 75 62 54 52 52 46 39 36 34 34 40 40 37 42 41 42 46 46 42 38 37 37 42 44 48 53 54
91 96 101 107 114 119 110 95 87 78 66 59 53 53 45 42 43 43 39 34 29 38 44 37 47 44 48 51 52 50 42 36 32 32 34 36 40 45
97 102 107 113 116 102 88 80 68 58 57 53 47 41 43 43 37 31 28 27 28 30 27 27 30 28 30 29 33 35 33 30 29 28 25 25 26 29
102 107 113 110 94 86 77 63 53 50 46 42 41 42 37 35 33 32 30 26 27 32 31 26 33 30 29 29 29 28 26 24 22 21 21 21 27 30
105 111 103 90 81 74 63 51 43 39 35 38 37 36 33 32 33 30 28 27 24 32 37 33 34 28 27 28 29 26 23 19 20 23 26 28 32 35
108 95 83 77 68 59 51 39 33 29 33 28 29 29 30 31 33 34 34 31 29 28 38 33 29 27 17 28 30 24 21 18 14 13 13 17 24 35
91 79 72 62 53 47 39 31 29 30 25 24 25 26 28 30 32 33 35 37 35 33 34 32 23 21 21 24 20 16 11 7 14 16 21 25 26 29
76 70 59 47 43 39 30 30 30 26 25 24 24 26 27 29 29 31 31 34 38 37 30 28 25 23 22 17 15 18 17 17 18 20 28 27 32 29
69 60 46 41 37 29 34 28 25 23 22 24 27 28 28 28 27 28 30 31 35 32 30 29 25 22 18 13 18 18 18 23 20 19 24 34 26 25
60 45 40 35 29 34 28 28 26 25 25 25 28 29 29 29 28 26 26 26 29 25 28 26 22 20 17 15 19 25 27 26 15 16 23 16 20 14
44 38 34 28 33 29 30 26 28 29 29 27 25 25 28 29 29 25 24 25 26 20 23 22 19 18 14 18 27 28 23 22 18 17 15 16 19 28
38 31 27 29 25 27 26 32 30 27 24 23 25 25 26 27 29 25 20 19 21 18 19 16 16 16 16 20 21 20 22 21 23 26 30 33 39 43
30 25 27 24 27 28 27 24 23 24 24 26 27 28 28 26 27 24 18 14 17 15 13 13 12 12 13 19 22 23 27 22 24 25 27 29 31 38
26 25 26 27 27 25 26 25 27 28 29 31 30 27 25 23 26 24 17 10 12 12 8 10 9 9 9 15 21 19 24 24 22 24 24 25 31 35
24 25 25 24 26 27 28 28 28 27 26 25 22 21 22 23 24 21 15 10 8 8 4 7 8 8 8 13 18 16 17 24 27 21 26 25 28 31
23 21 23 26 27 28 29 30 30 28 25 21 18 21 21 22 20 18 15 12 8 5 5 3 7 9 8 11 11 14 18 17 24 20 25 26 27 27
20 23 24 26 28 30 30 31 31 26 19 13 16 18 19 21 19 18 15 11 7 3 4 3 6 7 10 10 10 12 20 24 19 15 20 25 25 26

GFSNE_500_spd_036.txt.gz
Wind_Speed
63 64 68 71 69 71 73 76 79 80 77 84 91 96 103 109 115 121 124 128 129 128 123 114 108 104 102 101 101 100 98 96 96 96 95 97 99 102
65 69 70 70 71 74 77 82 87 91 90 92 98 106 112 119 124 127 124 118 111 103 96 91 89 87 85 86 86 88 90 89 88 86 85 85 87 89
70 69 70 72 75 79 83 88 92 99 104 98 107 112 118 121 114 107 102 95 82 67 62 61 60 59 60 60 62 66 72 77 80 81 79 78 78 79
69 69 72 75 79 84 89 95 100 105 111 115 115 114 109 98 89 84 68 61 62 60 57 57 57 54 51 49 48 46 46 53 61 67 71 72 74 76
69 72 75 79 85 90 94 99 106 111 116 118 112 99 85 76 60 54 55 50 49 51 53 53 53 51 50 47 44 39 37 38 39 44 48 53 59 63
70 73 78 86 92 97 101 107 113 115 110 103 91 78 62 51 48 42 45 48 46 48 48 46 47 43 43 44 43 44 41 37 33 33 37 41 47 55
73 78 87 92 97 104 110 114 112 102 93 82 70 54 49 41 44 41 36 33 35 40 38 39 40 39 40 38 33 31 32 35 38 39 38 37 41 46
78 83 92 100 106 110 113 107 94 85 76 63 49 43 40 41 35 33 33 32 30 39 38 28 39 37 41 39 39 36 31 31 30 32 32 34 39 40
84 91 99 105 111 112 103 87 75 66 59 47 38 41 37 36 33 31 30 30 34 37 37 29 40 41 41 37 37 32 28 28 28 28 31 32 33 31
92 100 105 109 109 100 86 72 55 50 45 38 42 37 34 33 34 32 32 28 30 36 41 38 43 39 33 33 32 25 27 32 30 29 30 29 27 27
98 105 110 110 97 84 71 53 46 41 35 41 38 35 35 35 35 34 33 34 30 33 42 38 38 31 28 29 26 30 29 24 23 24 25 29 30 30
103 109 108 94 79 69 54 44 36 33 38 34 34 34 35 35 37 37 37 35 36 34 36 33 30 27 19 25 22 20 22 21 12 15 16 17 19 21
108 105 89 75 67 52 44 36 35 37 30 33 31 31 32 33 35 37 38 38 37 36 35 32 26 25 23 19 23 24 22 22 24 27 26 25 25 28
102 84 73 64 50 43 36 34 33 30 32 30 30 32 32 32 30 34 34 34 36 36 31 30 23 21 21 22 24 26 28 28 33 28 21 25 34 34
81 71 62 48 41 36 33 32 30 31 30 30 34 32 30 29 29 30 33 29 31 32 27 25 20 19 19 25 27 28 30 28 30 24 23 27 26 32
67 60 45 39 34 33 32 31 32 33 32 28 25 25 26 29 31 31 30 25 21 27 23 18 14 16 21 28 32 34 32 28 25 25 23 26 28 28
58 44 36 31 33 32 35 35 34 30 30 30 30 31 33 33 34 32 32 25 18 17 17 15 10 13 18 26 30 30 22 24 27 27 28 24 24 20
45 32 29 32 30 31 30 30 33 32 33 33 34 33 31 29 28 28 29 23 16 15 11 11 6 11 19 23 26 22 19 20 22 26 30 31 26 27
34 28 30 30 29 30 31 32 32 33 32 32 31 29 26 25 24 24 26 22 15 11 7 8 4 6 13 20 25 18 15 18 19 23 26 30 33 37
28 28 29 29 31 32 34 34 34 34 33 30 27 24 22 23 25 25 22 18 12 10 5 6 2 3 10 14 20 15 13 16 19 20 23 26 28 31
25 26 28 30 32 34 36 37 35 33 28 22 18 18 20 23 25 23 22 14 9 7 4 4 2 2 6 12 18 14 13 15 16 19 22 24 26 29
22 24 28 31 35 38 38 34 29 24 19 15 15 18 20 21 23 24 21 15 10 6 3 2 2 4 5 9 13 13 14 15 15 16 17 19 21 22
22 26 30 33 34 34 29 25 22 19 16 15 16 17 20 23 24 22 20 16 10 6 3 3 1 5 6 8 10 11 14 16 14 17 16 17 19 20

GFSNE_500_spd_039.txt.gz
Wind_Speed
59 59 60 63 66 69 70 71 74 75 72 75 81 87 92 97 102 107 111 116 119 120 119 118 115 107 101 96 92 88 86 86 89 94 100 106 109 113
58 60 64 67 70 69 71 73 75 78 78 84 87 95 102 108 112 117 118 117 109 100 94 87 79 73 67 64 62 62 65 66 65 65 70 81 91 97
62 65 69 70 69 71 73 75 79 85 91 88 98 102 110 116 117 113 103 92 80 69 62 60 58 56 58 58 55 54 53 51 51 52 57 58 66 80
65 69 69 69 71 72 75 80 89 94 100 102 104 111 113 107 96 83 74 63 60 52 54 58 51 45 38 39 41 42 44 47 49 50 48 50 53 56
70 69 69 70 72 76 83 87 93 102 109 115 114 107 94 80 67 55 50 47 49 49 47 44 45 45 44 45 44 43 42 39 39 43 45 43 42 47
67 69 70 74 77 83 88 94 103 110 115 116 104 84 68 52 45 41 41 41 40 42 44 41 41 41 44 44 43 43 41 40 38 35 38 41 40 35
67 69 73 77 83 89 96 104 111 114 111 97 79 63 48 39 42 38 35 33 34 41 39 37 37 41 45 48 48 47 43 39 36 37 36 36 40 42
68 73 78 84 90 95 103 112 114 104 89 74 58 47 38 42 35 31 33 31 27 39 35 33 41 41 42 43 43 35 31 30 32 33 36 36 37 41
73 78 83 89 95 102 109 109 94 80 70 55 44 37 41 37 32 30 30 30 30 34 34 29 41 37 43 40 35 29 27 26 27 31 37 37 34 34
78 84 89 95 102 109 108 92 75 64 51 45 39 43 38 34 34 32 31 29 28 33 35 33 38 37 39 36 33 29 26 22 22 24 25 28 32 30
83 89 95 100 106 105 91 74 59 46 41 38 39 35 37 36 36 35 36 35 29 30 33 35 36 31 34 28 25 25 27 26 23 23 23 24 23 23
89 95 101 105 100 85 73 58 42 37 35 36 35 35 35 37 39 40 41 38 35 26 30 29 31 26 18 21 23 28 31 33 33 33 30 30 29 29
93 100 103 95 80 69 54 41 34 33 34 33 34 34 39 38 39 37 38 40 38 30 28 28 25 21 17 18 26 32 33 31 28 27 29 27 25 28
98 100 92 75 63 51 40 33 35 33 34 35 35 36 32 31 32 34 35 36 39 33 22 24 20 13 17 23 29 25 28 29 30 30 29 27 26 27
96 88 72 59 47 38 34 36 34 35 33 31 30 31 32 32 32 32 34 33 36 32 21 21 16 15 19 26 30 23 23 27 30 33 34 32 29 33
86 69 56 44 36 35 36 36 34 32 32 32 30 32 33 33 33 30 28 27 28 30 22 18 14 12 17 23 29 28 25 25 27 32 37 41 33 37
66 53 40 34 35 35 35 36 36 36 35 36 34 33 32 31 31 29 27 26 25 20 21 19 11 10 17 20 24 23 21 23 24 29 35 39 40 36
50 35 31 31 31 33 35 37 39 39 38 36 33 30 27 25 24 26 27 25 22 18 17 14 12 10 15 21 18 17 19 20 20 27 32 35 40 41
32 27 27 29 32 36 39 41 40 38 34 29 24 20 18 20 21 23 24 24 21 15 13 12 9 5 10 16 14 15 15 18 16 23 28 31 40 40
23 24 27 31 35 37 38 35 32 29 24 18 14 14 15 18 21 24 25 22 18 15 12 9 7 3 6 12 6 11 12 17 19 23 28 30 34 38
21 24 27 31 33 33 30 29 27 23 18 15 15 15 18 21 25 25 23 21 14 11 10 8 5 2 5 12 10 11 9 11 15 19 24 25 28 31
21 24 27 29 30 29 28 27 25 21 19 18 18 21 23 24 25 22 20 19 14 10 7 4 2 2 3 9 8 10 6 8 14 17 20 22 25 26
22 25 27 29 30 30 30 28 26 23 23 23 24 25 25 25 24 19 18 18 14 9 5 2 0 4 3 7 8 8 5 5 9 14 16 19 23 24

GFSNE_500_spd_042.txt.gz
Wind_Speed
58 59 60 61 61 65 68 69 71 72 71 72 75 79 83 87 92 98 103 107 111 117 119 116 111 104 95 87 81 78 77 79 81 85 89 95 101 110
58 60 61 62 66 68 70 71 72 73 72 75 80 86 92 98 103 109 113 118 117 109 97 88 80 70 59 53 52 54 55 57 58 60 63 66 70 74
60 60 63 66 68 71 71 71 72 74 76 77 85 92 98 106 112 119 120 106 88 74 64 58 51 49 44 38 38 39 42 44 45 48 50 53 60 65
60 63 66 69 70 71 71 72 75 80 85 85 90 96 105 113 119 112 91 73 60 51 51 53 44 40 43 44 46 47 48 50 51 51 52 53 52 49
63 65 69 69 70 71 73 77 81 85 91 95 97 105 110 111 97 75 60 52 47 48 46 42 42 41 37 39 40 40 42 44 46 49 52 53 54 55
65 68 68 70 71 74 78 83 87 92 98 105 109 110 105 83 64 50 40 47 43 41 42 41 38 37 41 41 42 43 44 46 48 49 52 53 54 54
67 68 69 71 75 79 84 89 95 99 106 110 111 99 74 53 44 39 41 39 36 40 39 37 40 40 40 43 45 44 43 43 45 45 44 44 46 49
67 68 71 74 79 84 89 95 100 106 109 106 91 69 50 41 38 43 37 34 32 38 40 35 39 39 40 44 41 40 40 40 39 40 40 40 40 40
68 71 75 79 84 90 95 100 105 105 100 82 63 48 38 40 37 33 33 33 33 35 37 34 39 38 41 41 37 36 34 31 30 31 34 35 36 38
70 75 79 85 91 96 99 104 104 90 71 57 46 38 40 38 37 33 34 32 35 36 37 32 39 35 39 39 33 29 29 31 32 34 34 35 36 35
73 79 85 90 96 101 105 103 83 63 51 44 39 41 40 40 39 38 39 39 35 29 38 33 38 32 36 35 29 28 32 33 33 30 29 30 30 36
78 84 90 95 100 106 99 76 56 44 40 40 42 40 41 44 42 42 39 37 36 29 36 29 35 31 25 29 28 31 32 34 26 29 30 30 30 30
84 89 96 101 104 90 68 55 41 38 40 38 40 41 39 39 39 40 42 42 40 36 37 30 29 29 23 16 24 29 27 24 26 28 29 32 33 30
89 95 100 100 79 61 50 39 39 39 39 39 38 39 39 40 40 40 41 41 41 36 30 31 26 24 19 17 21 24 22 25 26 26 30 33 35 35
94 101 93 69 56 44 37 38 38 39 40 41 40 40 39 39 38 35 36 34 35 35 31 27 23 20 17 17 17 22 17 23 24 27 31 32 32 37
98 82 63 52 37 36 37 38 40 42 44 44 42 41 38 36 34 31 29 29 30 32 33 27 21 17 15 17 20 19 21 23 22 28 30 33 31 40
75 59 45 34 34 35 38 41 43 43 42 40 37 34 31 28 26 24 25 25 27 26 26 28 22 16 13 12 17 18 17 20 23 23 27 32 35 37
56 37 30 31 33 36 39 39 37 35 34 32 29 24 20 17 18 22 23 25 26 26 21 20 18 16 11 16 17 16 17 18 19 24 32 32 36 40
31 26 27 31 35 37 36 33 31 31 28 25 22 19 19 19 20 24 27 27 27 26 19 13 13 11 9 12 19 13 12 14 17 24 27 29 33 36
21 24 28 32 34 33 32 32 31 29 26 23 22 21 22 24 26 27 28 25 24 23 17 10 9 7 6 11 12 9 10 12 15 19 22 27 31 33
19 23 28 30 31 32 32 33 32 30 27 26 26 27 27 28 29 27 24 22 22 17 12 10 6 3 4 10 9 7 8 9 14 17 21 25 28 32
18 22 24 26 28 31 33 33 34 33 32 30 28 26 25 25 24 21 18 18 20 16 10 8 4 1 4 9 10 6 6 9 12 17 20 22 24 29
16 17 20 23 27 31 33 34 36 37 34 32 30 29 27 25 22 19 14 14 15 16 9 6 2 1 4 9 13 8 4 7 11 16 20 23 22 26

GFSNE_500_spd_045.txt.gz
Wind_Speed
51 54 57 59 60 62 65 66 70 71 69 69 71 73 75 77 80 83 87 92 97 102 107 113 117 116 110 94 82 72 67 66 68 70 74 79 84 91
54 57 59 61 62 64 66 69 70 72 73 73 75 77 81 84 88 92 97 102 108 113 116 114 105 89 72 60 53 51 49 48 48 49 51 52 55 59
57 59 61 63 64 67 68 70 71 73 75 73 76 81 86 91 96 102 107 111 114 114 100 82 67 53 50 47 37 38 41 44 46 47 49 50 51 52
58 60 63 65 67 68 71 71 72 73 75 76 81 86 94 99 104 109 113 113 101 81 63 51 45 46 41 38 42 42 40 40 41 42 45 48 51 52
61 63 65 66 68 70 71 72 73 76 79 83 85 92 99 106 110 113 107 83 65 53 44 44 41 41 39 40 40 38 36 35 40 44 46 47 49 52
63 64 65 68 69 70 72 74 76 80 84 90 97 101 107 112 110 95 71 55 45 45 45 44 38 41 39 39 38 37 35 38 41 41 41 44 48 49
63 66 67 69 70 71 73 77 82 87 93 100 105 109 110 99 78 60 46 41 42 42 37 37 39 40 41 42 41 38 38 40 41 40 43 44 44 43
64 66 68 69 70 73 77 83 88 94 100 107 110 107 85 64 49 42 40 39 36 39 36 33 39 40 42 43 42 41 39 41 38 36 38 39 41 43
66 67 68 70 74 78 83 91 96 103 109 109 95 73 58 44 39 41 41 37 39 41 43 34 38 38 40 44 42 40 37 36 30 33 36 37 35 35
65 66 70 75 79 85 90 96 102 106 100 81 66 52 44 43 44 41 40 41 38 39 43 38 35 37 34 42 40 37 32 27 28 32 26 26 29 32
65 70 74 78 84 92 101 104 103 88 70 60 47 44 45 45 45 44 41 40 36 35 41 40 40 39 35 42 38 33 27 26 30 27 26 29 30 32
70 75 80 86 92 100 104 98 80 63 51 45 46 46 46 45 46 47 45 42 41 36 43 37 36 40 29 37 34 32 24 28 30 27 29 31 32 33
74 79 86 92 98 102 91 72 55 42 44 44 45 47 48 49 49 48 47 45 42 39 41 37 32 33 32 24 29 30 24 27 27 26 28 31 30 35
79 85 91 97 97 82 62 45 43 43 45 47 48 49 49 49 49 48 45 42 41 39 34 34 30 29 27 23 20 23 24 28 24 23 25 26 32 34
84 90 96 91 73 51 41 41 43 46 47 46 44 44 44 43 41 37 34 33 31 33 33 34 30 25 22 18 15 19 20 21 21 21 22 26 33 34
88 94 85 64 42 37 40 44 45 45 43 40 38 38 37 33 28 24 21 22 25 29 34 35 31 24 15 16 11 15 18 15 16 19 20 29 35 39
91 78 55 35 34 38 40 41 41 42 41 39 35 32 30 27 26 24 24 25 29 29 30 33 33 21 13 10 10 15 12 13 16 17 23 28 35 40
71 49 29 29 33 33 33 34 37 40 41 39 36 33 29 27 27 28 29 30 30 29 28 27 21 17 12 8 7 7 13 11 16 21 25 29 33 39
45 23 24 27 25 26 30 33 36 38 39 40 38 35 33 33 32 31 32 31 29 28 29 19 14 11 9 7 15 12 9 14 15 21 25 28 33 38
18 20 22 20 23 28 32 36 38 39 39 40 41 38 34 31 29 28 29 27 24 24 24 17 12 7 4 5 11 15 11 11 15 19 23 27 31 33
14 18 17 20 25 31 36 38 40 40 40 42 42 38 35 32 28 27 25 24 18 19 19 13 9 4 2 7 8 8 7 10 15 19 23 26 28 29
13 14 16 21 27 34 38 39 42 42 42 44 41 38 35 32 27 24 21 18 15 16 16 10 6 2 6 9 9 5 6 11 16 19 23 26 25 26
11 13 18 23 30 35 39 41 42 42 44 44 40 37 34 31 27 20 15 14 11 13 13 9 5 6 9 13 11 5 4 9 14 20 22 26 28 25

GFSNE_500_spd_048.txt.gz
Wind_Speed
48 48 50 53 55 58 60 62 65 67 65 63 66 68 69 71 72 72 73 76 80 85 90 95 99 103 106 109 112 110 99 85 78 73 72 71 71 71
48 50 53 55 57 59 61 65 67 69 70 70 71 72 72 72 74 77 80 85 90 96 102 106 110 112 111 105 88 67 54 51 51 50 48 47 46 46
50 53 55 58 59 62 65 66 67 70 72 71 72 72 73 76 79 84 89 94 100 107 111 113 111 98 79 63 48 43 44 41 40 42 43 43 44 46
53 55 58 60 63 65 66 67 69 71 73 72 71 73 78 84 88 92 99 105 110 112 108 88 73 54 45 40 40 39 38 39 40 38 39 40 42 42
55 58 60 62 64 65 68 69 71 71 71 74 75 80 86 94 98 104 108 111 104 86 68 54 44 46 45 44 42 38 38 36 34 37 39 39 40 42
57 60 62 63 64 67 68 70 69 71 75 78 83 90 98 103 108 111 105 84 65 56 46 45 42 41 41 38 35 36 36 35 36 37 38 39 39 37
59 61 62 65 66 68 68 69 72 76 80 86 91 96 103 110 111 95 72 55 46 45 43 42 40 39 39 39 38 38 39 39 38 39 39 39 37 35
59 61 63 65 66 66 69 73 78 84 90 95 100 106 109 100 80 60 46 43 42 46 42 38 43 41 42 42 44 44 42 42 41 41 39 37 35 35
59 62 63 64 65 68 72 77 83 91 99 103 105 103 83 63 49 43 47 46 44 46 46 38 40 35 40 38 43 43 39 39 40 39 36 34 33 34
61 62 62 65 68 72 76 83 90 98 103 102 89 67 51 47 47 45 45 45 43 45 47 42 38 36 38 41 46 45 43 39 39 34 31 29 32 29
59 61 65 68 74 77 86 93 98 98 90 69 54 51 50 50 52 52 51 50 48 46 49 46 40 38 37 38 43 40 37 35 33 30 27 28 27 27
61 65 70 75 79 86 95 99 96 79 54 49 52 53 53 52 52 52 51 49 48 43 47 43 39 39 31 32 39 38 33 31 27 27 25 25 26 27
64 70 75 79 86 94 97 90 65 45 47 50 51 50 48 48 47 47 47 45 40 35 36 32 28 30 33 28 29 36 30 26 23 22 24 26 27 29
69 73 79 86 94 93 80 52 42 45 45 44 45 46 45 45 42 39 36 32 29 26 24 26 24 27 27 25 25 31 28 25 22 23 26 27 28 27
73 82 88 94 90 71 43 39 39 34 35 38 40 42 43 42 39 35 32 29 29 31 32 32 31 29 30 22 18 25 24 22 21 23 23 24 24 27
80 88 92 85 62 35 35 33 30 35 38 41 42 42 42 42 40 36 32 31 31 33 38 35 34 32 26 18 15 19 19 19 24 24 22 19 24 30
87 94 79 54 29 30 28 30 35 39 43 45 45 44 43 44 41 37 35 34 35 34 32 31 35 33 20 11 13 11 15 16 18 17 16 17 25 32
91 75 48 24 25 24 28 34 39 42 45 46 46 46 46 45 40 37 33 30 29 29 27 25 27 21 18 11 9 7 14 14 15 17 18 21 25 32
69 43 21 21 20 24 30 37 42 45 46 45 46 47 48 43 39 33 30 28 26 27 24 25 19 13 12 11 8 9 10 14 13 17 21 25 27 30
39 17 18 19 21 27 35 41 45 45 45 47 49 50 46 40 36 31 27 23 21 20 20 23 15 10 5 4 11 15 7 8 12 16 22 26 30 27
16 14 16 19 24 31 38 43 44 44 46 49 52 49 44 39 34 28 21 18 16 14 16 16 12 5 3 6 9 14 17 14 15 17 20 24 29 26
11 13 15 20 27 34 39 41 42 44 47 51 49 45 40 35 26 19 12 8 12 12 15 11 7 6 8 10 13 11 14 17 19 22 26 30 31 25
7 11 16 22 29 34 37 39 41 44 48 48 45 41 37 30 18 9 3 4 8 12 12 7 6 11 13 15 15 11 10 15 19 24 29 33 32 34

GFSNE_500_spd_051.txt.gz
Wind_Speed
42 45 48 51 52 52 53 56 58 60 60 60 62 62 64 66 68 70 72 73 74 76 79 82 85 89 92 96 100 104 108 111 113 113 110 105 100 96
45 47 52 53 52 53 56 59 61 64 66 66 66 67 67 68 69 70 72 75 78 82 87 92 96 99 102 106 110 111 105 95 83 71 65 62 59 57
46 51 54 53 54 57 60 62 64 66 66 67 71 71 72 72 72 74 77 81 85 91 97 102 106 109 109 104 89 73 59 51 50 46 44 44 44 43
49 56 54 56 58 61 62 64 65 66 68 69 69 69 70 72 75 79 86 91 97 102 108 111 107 93 77 61 46 45 47 49 48 44 41 40 40 42
54 55 57 58 61 63 64 65 66 67 68 69 68 71 73 79 83 90 95 102 108 112 105 84 72 58 46 41 45 43 41 41 39 40 39 39 40 40
55 57 59 60 63 63 64 65 66 66 67 69 72 76 82 88 94 97 102 108 98 81 65 54 48 46 45 47 44 41 39 35 33 36 37 38 38 38
56 59 60 62 62 64 65 66 66 68 72 76 79 84 90 96 103 106 100 79 56 54 50 50 50 48 48 46 45 44 42 39 39 40 39 38 39 38
57 60 60 61 62 64 64 66 70 75 79 82 87 94 100 106 102 85 62 52 48 54 50 47 50 46 45 44 45 45 44 43 42 41 41 42 40 40
58 58 59 61 62 62 65 69 73 78 86 92 98 103 103 88 68 55 56 56 56 56 56 52 54 49 48 46 48 47 46 44 43 42 43 43 42 41
56 59 59 59 61 64 68 73 78 86 93 100 104 92 67 56 58 59 61 59 56 53 55 54 51 48 46 43 47 48 46 44 42 41 41 42 43 40
57 57 59 61 65 69 74 79 86 94 100 98 74 55 54 55 53 51 51 51 46 45 51 47 44 41 36 34 42 44 43 42 40 39 38 39 39 37
55 58 62 66 70 75 80 85 91 99 85 52 48 45 45 47 49 49 50 48 44 38 43 34 29 31 22 25 34 39 40 39 34 33 34 35 34 33
57 62 66 70 75 81 87 93 96 69 41 40 38 43 46 48 50 50 51 50 45 39 37 32 26 26 27 21 27 34 38 37 32 28 29 29 28 28
62 67 71 76 82 88 93 87 54 36 35 37 42 45 48 50 50 50 50 51 48 42 37 37 31 32 30 26 25 30 38 36 26 23 20 21 22 25
67 72 77 83 89 93 75 42 32 31 36 41 46 49 50 50 50 49 50 51 46 43 41 39 38 35 34 31 28 29 31 30 20 15 17 18 20 23
73 79 84 90 91 63 34 30 30 35 40 45 49 50 51 50 50 50 50 47 40 37 39 36 34 33 30 33 23 19 24 20 19 16 17 18 20 21
79 85 90 83 54 30 27 28 33 40 46 51 52 51 50 51 51 51 47 41 37 33 30 32 31 29 32 22 12 14 15 15 18 21 21 19 25 28
86 88 72 46 24 24 25 31 38 45 50 52 52 53 53 53 50 45 40 35 32 27 25 23 21 23 24 24 6 10 9 16 18 21 20 17 20 27
83 60 40 18 20 22 27 35 42 47 49 51 53 56 55 49 42 36 31 26 22 20 21 18 20 17 14 15 8 8 13 20 17 21 18 18 20 26
51 33 13 16 18 24 31 37 42 45 47 51 53 53 51 43 33 25 19 14 11 14 17 19 15 11 6 7 14 21 10 11 15 16 20 25 30 32
27 8 11 14 19 27 34 37 39 43 46 46 48 46 39 30 21 14 11 9 9 12 14 14 12 9 11 12 14 19 22 14 14 17 21 27 31 34
2 6 10 15 22 29 33 35 40 42 40 39 39 37 33 27 21 17 13 13 13 14 14 13 13 15 17 19 19 18 18 19 22 25 30 34 37 38
2 5 10 17 23 30 32 34 40 37 35 35 35 34 30 27 23 19 17 15 15 15 15 16 19 21 23 23 19 14 15 17 20 26 33 38 40 40

GFSNE_500_spd_054.txt.gz
Wind_Speed
44 42 43 43 47 49 50 53 56 55 54 56 59 60 62 64 64 67 68 69 70 71 72 73 75 78 81 84 88 91 95 98 101 104 107 109 111 113
44 46 47 47 52 53 54 59 59 60 61 63 64 65 64 65 66 67 69 70 71 72 75 78 82 86 90 94 98 102 106 107 108 109 107 101 95 92
45 48 45 55 54 56 58 60 62 64 65 66 70 69 69 69 68 69 70 72 75 80 83 88 93 97 101 105 108 108 104 97 88 79 68 60 57 56
46 49 49 54 58 58 62 63 65 67 68 69 70 70 70 70 71 73 76 81 86 91 96 99 103 106 109 106 92 79 68 60 53 47 48 48 50 50
48 48 58 58 59 63 63 64 66 68 69 70 70 70 70 72 75 79 83 89 94 101 106 108 108 96 78 64 57 52 48 47 47 50 47 46 44 45
54 55 56 59 62 62 64 65 66 67 68 69 69 70 73 77 81 85 88 98 104 109 103 90 71 64 63 60 56 54 52 51 50 48 45 45 43 39
57 58 57 60 62 64 65 66 67 67 68 69 71 74 79 83 89 93 101 106 93 74 66 60 65 67 68 65 62 59 56 52 49 46 47 47 46 43
59 58 59 62 64 65 66 67 67 68 70 74 77 81 85 91 98 102 100 76 55 61 62 60 63 60 61 61 60 60 60 59 55 50 46 45 45 45
56 58 60 63 64 65 65 65 68 72 76 80 83 89 93 100 101 80 57 54 54 57 59 56 57 53 54 53 55 57 58 57 55 53 49 46 46 45
57 59 61 62 62 63 65 68 72 77 81 86 93 99 102 83 60 49 49 51 54 57 60 58 56 51 48 45 46 47 50 49 48 49 49 47 46 45
58 59 60 60 62 65 69 72 76 82 88 95 100 92 65 49 47 50 53 54 55 55 59 57 55 50 40 36 39 40 39 39 40 42 42 42 43 44
59 59 60 62 65 69 74 77 82 88 95 95 73 52 46 47 52 55 58 59 60 55 58 55 55 51 36 31 36 41 43 42 33 30 30 34 36 40
55 58 62 66 71 76 80 85 91 96 84 54 42 42 47 53 57 61 63 62 59 56 57 59 55 43 39 34 35 39 41 40 39 35 31 28 30 34
58 62 67 71 76 80 86 92 91 70 43 39 40 46 52 58 62 63 62 60 58 57 56 58 47 39 33 31 34 35 38 38 39 37 33 23 25 29
63 68 72 76 82 88 92 81 57 36 36 39 46 52 58 61 62 61 60 60 57 56 54 47 42 33 29 29 26 28 33 35 39 30 18 17 21 23
70 75 80 85 89 85 64 42 30 32 37 45 51 56 60 62 63 63 60 56 48 41 42 40 33 29 28 28 28 21 25 23 25 17 9 13 15 17
76 81 88 89 74 52 31 26 30 37 44 50 54 58 60 61 61 56 49 40 33 28 25 30 28 26 26 29 19 12 14 17 14 15 14 14 15 18
83 88 83 60 38 21 22 27 33 40 46 50 52 51 53 50 45 38 31 23 18 17 17 17 19 20 25 28 10 9 11 8 14 19 18 14 19 26
88 71 46 25 13 18 23 30 36 40 46 44 43 41 38 37 33 27 22 19 17 16 19 19 19 18 14 16 20 10 8 15 19 22 25 21 18 30
56 32 12 9 13 20 26 32 35 39 37 38 37 35 33 31 28 25 22 21 20 22 22 20 17 14 14 13 15 21 27 18 17 21 25 28 29 30
19 2 5 10 16 22 29 32 35 34 32 34 35 33 30 28 27 26 25 23 22 22 19 18 18 19 20 20 19 21 23 22 17 17 23 27 31 36
6 5 7 12 18 25 30 31 35 32 32 34 32 30 28 26 25 24 23 22 22 22 22 22 22 22 23 21 17 16 18 21 26 28 30 32 35 35
6 6 9 13 20 27 30 31 34 33 32 32 32 29 27 25 23 22 24 25 24 22 23 24 25 24 23 22 20 20 21 23 25 28 32 34 37 34

GFSNE_500_spd_057.txt.gz
Wind_Speed
48 48 47 46 45 44 50 52 50 51 54 55 58 60 61 61 64 66 68 68 70 71 71 71 72 72 72 73 75 78 81 84 87 90 92 95 97 99
49 48 52 44 47 48 51 53 54 57 60 61 62 63 64 65 67 69 70 71 72 71 71 72 73 74 76 79 83 86 91 95 98 100 103 104 105 106
49 45 47 52 51 52 55 57 59 66 65 63 65 65 67 68 69 71 74 74 73 73 74 76 78 81 85 90 95 100 103 105 101 98 95 91 87 86
40 45 47 50 54 58 63 62 64 68 67 65 66 67 69 71 73 73 73 73 75 79 81 83 86 92 97 101 105 107 101 88 78 70 65 61 58 58
45 45 43 53 55 56 59 67 66 67 66 67 68 70 71 72 72 73 74 77 82 87 90 92 98 104 107 101 90 76 68 65 66 63 61 59 57 56
45 48 48 49 58 68 67 67 67 67 68 69 71 72 71 72 74 77 78 84 87 94 98 101 105 96 76 66 64 65 64 64 64 64 64 63 59 55
47 50 50 59 64 67 67 67 68 69 70 71 71 71 72 76 80 83 86 91 95 103 102 91 76 61 59 61 64 64 65 66 64 62 61 60 59 56
54 51 56 60 63 63 66 69 70 70 70 72 73 74 78 83 86 90 95 100 97 82 68 55 57 56 59 62 63 65 66 65 61 57 55 53 54 55
50 51 56 58 62 65 67 68 68 69 72 74 77 82 84 88 93 98 96 87 70 56 55 53 58 57 61 61 63 65 65 63 53 48 47 47 48 50
58 58 59 63 65 66 66 66 67 71 76 80 84 87 92 97 98 91 72 55 50 55 62 58 62 61 61 59 60 63 65 58 48 41 37 35 38 44
55 57 60 61 63 63 67 68 71 77 81 86 91 96 98 89 72 54 51 54 56 61 66 69 65 63 60 55 56 60 58 54 47 41 36 31 30 33
55 59 61 62 64 67 70 73 77 81 86 92 96 89 71 53 52 56 60 64 68 69 68 70 63 62 57 52 48 46 47 49 47 44 42 36 29 28
54 57 60 63 67 72 76 80 83 88 92 89 72 50 48 52 58 64 70 73 74 71 67 67 59 54 51 39 33 35 40 42 43 45 46 41 32 28
55 59 63 68 73 78 82 87 90 89 72 46 39 44 50 57 63 67 69 71 68 61 53 52 46 39 34 27 24 25 33 37 38 39 41 39 34 26
61 66 71 76 81 86 90 88 72 45 31 36 42 49 55 57 54 52 55 52 44 41 39 34 27 21 20 19 18 22 24 27 37 38 34 22 15 19
68 74 80 85 89 86 71 47 26 26 32 39 45 48 47 44 43 42 40 36 31 25 30 27 23 21 20 22 22 16 17 19 24 19 11 6 10 11
77 85 89 86 74 48 24 18 25 31 37 42 40 41 38 37 37 36 34 33 32 28 27 29 30 28 27 25 14 12 10 18 16 13 12 11 13 15
86 86 75 54 26 13 17 23 29 34 39 34 35 35 33 31 31 33 33 33 32 30 26 23 22 21 24 27 23 22 19 18 19 19 20 21 21 20
78 59 35 10 10 15 21 28 31 36 32 31 32 31 30 30 28 29 28 28 29 28 27 25 24 22 18 17 25 33 13 19 16 23 27 25 25 27
46 19 10 11 14 19 26 30 32 34 31 31 31 30 27 27 27 27 28 26 26 26 27 27 27 27 25 22 20 25 30 24 19 18 19 23 26 28
14 11 11 13 16 21 28 32 31 34 32 31 31 29 28 26 25 26 28 31 30 29 29 31 31 31 29 28 26 26 27 29 28 24 23 23 27 30
12 10 11 14 17 23 28 33 34 33 35 34 32 31 29 28 27 28 29 30 30 30 31 32 31 31 31 28 24 22 23 24 28 30 34 35 33 29
15 11 12 15 18 23 27 32 35 35 34 35 34 32 30 28 27 28 31 31 27 29 31 30 30 30 28 28 28 26 25 24 26 27 32 38 40 29

GFSNE_500_spd_060.txt.gz
Wind_Speed
54 53 52 52 52 48 46 55 52 48 50 53 54 56 56 60 65 66 67 67 67 67 67 68 70 71 71 71 72 72 72 72 72 73 74 76 80 82
53 53 53 55 52 44 53 55 51 52 53 55 60 61 64 65 65 66 67 68 69 70 71 72 71 72 73 72 72 74 75 78 80 82 86 89 91 94
53 53 53 53 45 52 51 53 54 55 55 56 59 62 68 67 68 69 70 71 72 73 73 73 74 74 75 76 78 80 82 85 89 92 95 98 102 105
50 51 51 49 48 55 49 53 55 57 58 60 67 69 70 68 69 70 72 72 72 73 74 76 77 79 81 83 86 89 93 97 99 102 98 98 95 85
48 47 49 46 53 51 59 58 58 57 64 67 71 70 69 70 73 73 73 72 74 76 80 83 85 88 91 94 97 99 97 92 90 83 67 61 62 64
48 48 50 46 57 59 55 58 58 65 66 68 69 70 72 73 74 74 73 75 78 84 87 90 94 98 100 98 95 88 75 63 60 59 60 61 62 64
45 48 46 52 59 65 65 62 66 64 66 68 68 68 70 72 74 76 79 82 85 90 94 98 99 94 84 73 62 57 59 60 61 61 62 63 65 67
45 43 45 49 59 58 59 65 65 65 68 68 68 70 72 76 79 83 86 89 91 96 93 81 70 58 56 55 59 62 64 65 66 65 64 64 63 63
46 52 49 49 57 63 67 65 67 67 69 71 73 75 78 82 84 89 94 97 93 78 66 53 59 59 62 63 66 68 69 70 68 65 63 61 60 56
45 49 51 56 59 61 62 62 64 68 70 75 79 82 85 89 93 94 88 72 56 59 66 66 71 72 72 70 68 66 65 63 62 62 62 60 53 42
45 49 53 56 59 58 60 64 67 72 77 82 86 89 91 90 78 60 53 57 61 65 68 70 71 71 68 63 59 55 57 59 60 61 59 48 40 36
46 50 52 53 57 61 65 69 73 79 84 88 92 88 71 51 47 52 58 61 56 51 55 53 46 44 37 36 41 46 50 53 55 54 49 43 35 30
47 49 54 58 63 69 74 79 84 88 90 84 64 42 38 44 50 54 52 47 46 46 41 40 37 33 28 18 17 26 34 39 42 41 41 38 35 31
48 52 58 64 70 77 83 88 88 76 56 34 29 34 40 46 46 44 39 37 38 37 38 37 33 31 27 21 16 20 26 29 32 33 35 36 34 28
52 58 65 73 80 82 81 65 44 24 22 29 34 39 41 37 39 35 34 34 37 37 37 35 32 31 30 24 12 18 20 22 30 28 20 15 15 16
58 65 72 75 71 66 43 20 19 25 29 34 38 34 34 36 34 30 31 33 33 36 36 35 34 33 31 27 17 14 17 19 24 22 13 11 9 11
63 71 70 60 56 22 17 21 26 29 34 34 29 32 33 31 30 28 29 32 34 32 32 34 35 35 35 37 35 28 28 18 20 24 22 18 20 17
69 65 56 40 15 17 20 27 30 32 33 30 30 30 29 27 27 28 29 31 32 35 34 34 34 33 34 37 39 35 34 26 29 26 23 21 24 26
58 46 28 18 16 19 23 28 33 34 33 31 30 30 28 27 27 28 29 32 35 36 37 36 36 33 29 27 33 41 31 29 27 26 21 23 24 28
40 29 26 17 18 20 23 27 32 36 35 34 32 31 29 28 28 28 29 30 33 33 35 39 39 37 34 27 23 28 30 26 23 23 22 23 22 26
33 27 21 19 20 21 24 26 30 34 36 35 34 33 31 30 30 30 30 35 35 35 36 37 37 37 34 32 30 31 31 31 30 28 28 29 29 29
28 25 22 21 23 24 26 27 30 32 36 38 37 35 33 31 30 29 29 32 35 36 36 37 36 35 34 35 31 26 22 25 29 32 34 42 42 39
26 24 24 24 25 26 27 29 30 31 33 36 38 36 34 32 32 31 31 33 34 35 36 35 35 34 36 38 34 27 27 28 25 24 32 39 43 38

GFSNE_500_spd_063.txt.gz
Wind_Speed
56 55 55 51 59 54 52 53 56 53 56 54 52 50 54 57 57 57 56 56 59 65 67 68 67 68 69 70 71 72 72 72 73 74 73 73 74 74
57 57 58 57 57 56 49 58 54 61 53 55 62 58 59 59 61 61 61 64 67 69 69 70 71 71 71 72 72 73 73 73 74 74 75 76 77 78
57 59 59 59 56 55 56 54 61 55 51 63 55 58 61 63 64 65 68 68 69 70 72 73 74 74 74 74 73 74 75 76 78 80 82 84 85 87
57 59 59 57 54 53 56 56 65 56 54 58 60 58 63 66 66 69 69 71 71 73 73 73 74 74 76 78 80 82 84 86 88 90 91 94 96 97
52 55 57 57 44 55 56 55 57 57 54 64 64 63 64 66 70 71 69 70 71 72 74 77 79 82 85 87 89 92 96 98 100 101 102 101 99 97
44 44 50 47 53 50 61 53 59 59 62 68 68 64 69 72 71 71 70 71 72 76 80 83 87 91 95 98 100 99 95 90 85 81 73 66 61 60
40 37 41 48 51 55 54 57 59 62 62 66 67 69 71 72 72 72 73 76 79 83 87 92 97 94 89 83 77 73 71 69 66 61 57 56 57 58
37 41 48 47 45 53 62 62 60 59 62 61 64 67 70 71 73 76 79 83 86 92 92 85 71 63 66 71 74 76 78 78 75 70 66 64 63 64
40 43 46 49 51 54 54 57 61 62 62 64 67 70 73 76 80 84 88 91 89 75 65 55 60 59 60 60 65 68 71 76 76 73 70 68 67 67
40 43 41 46 48 52 53 53 56 60 65 70 75 78 82 86 90 90 85 68 49 51 52 43 43 45 47 50 53 55 56 55 57 59 57 56 55 55
39 40 43 48 46 49 51 56 62 68 74 78 82 85 86 81 71 57 43 41 44 45 40 32 36 38 42 45 47 48 49 46 43 42 45 48 49 49
37 39 40 43 47 51 56 62 68 74 78 80 77 67 57 44 36 37 40 41 36 34 33 32 36 37 33 38 42 43 42 41 38 34 32 30 29 27
34 38 42 46 51 57 63 68 72 72 70 59 43 33 34 38 41 43 37 36 34 33 34 32 34 36 37 33 34 40 37 38 36 35 33 31 29 27
35 39 44 50 56 61 67 69 63 53 33 27 32 36 41 41 36 36 37 33 31 31 33 34 33 32 32 32 29 32 33 36 35 31 28 24 22 20
37 42 49 54 59 63 58 49 28 25 31 35 38 36 31 32 35 34 31 29 32 35 37 36 34 33 36 34 30 31 22 29 32 29 26 23 17 15
39 47 54 59 60 50 36 21 25 29 33 35 33 29 30 32 30 28 28 29 30 35 42 41 38 38 39 36 34 30 30 23 22 25 26 26 22 15
45 52 57 58 46 33 24 22 24 29 32 33 30 28 29 29 28 27 29 30 32 32 34 36 35 38 40 41 34 33 28 29 25 22 21 22 24 20
47 51 58 46 37 32 22 24 25 27 31 34 34 30 28 28 27 29 29 29 30 34 35 33 33 35 36 40 39 31 34 32 32 29 24 20 26 24
49 53 50 36 33 28 26 26 27 28 31 33 35 33 30 28 28 28 28 28 30 34 36 36 36 32 27 27 35 40 33 30 27 26 22 19 18 22
47 52 41 32 31 28 28 28 29 31 31 33 34 35 34 30 29 29 30 29 29 31 34 38 38 37 35 31 29 36 39 32 25 22 21 22 20 23
50 51 36 29 28 29 31 31 32 33 33 33 33 34 36 34 33 31 30 31 31 33 35 38 40 39 39 38 36 35 34 33 30 29 23 19 22 26
52 47 32 28 28 29 30 30 31 32 32 31 33 33 35 36 36 33 31 30 32 34 35 37 39 38 39 39 36 30 26 27 29 30 31 34 34 30
54 42 30 28 28 29 29 30 30 30 30 30 31 32 33 35 37 36 33 32 31 33 34 35 38 39 40 38 33 26 24 26 25 24 29 36 39 42

GFSNE_500_spd_066.txt.gz
Wind_Speed
57 56 64 53 57 60 56 56 51 58 64 64 63 62 61 55 62 62 60 61 65 59 60 63 66 67 66 68 70 71 72 72 72 75 75 76 75 75
59 55 60 68 60 55 57 59 63 63 63 61 61 63 65 60 55 61 64 57 57 62 65 68 68 68 72 75 74 74 74 75 76 78 78 78 77 77
59 60 59 55 52 57 59 58 60 60 61 61 57 64 69 69 62 58 63 65 65 65 65 67 71 75 77 77 77 76 77 77 77 77 79 81 81 83
54 56 54 55 59 58 57 60 60 59 58 60 58 59 56 59 61 62 62 65 67 68 71 77 78 77 75 76 78 78 79 80 83 86 89 91 92 94
50 49 49 51 52 51 54 50 55 55 57 59 61 58 63 62 63 68 66 67 72 72 73 75 76 77 79 82 83 85 88 91 94 97 100 101 102 103
45 45 45 44 45 43 46 51 48 52 58 64 63 63 64 63 66 67 69 69 70 72 75 79 81 84 87 89 91 95 97 97 92 86 82 79 78 78
39 39 38 40 42 41 45 47 51 52 54 57 60 64 65 67 67 68 69 72 75 80 83 87 90 92 93 91 87 81 73 66 59 58 59 63 67 71
33 35 37 38 41 46 49 52 55 55 56 58 56 58 62 66 69 72 76 80 84 90 90 86 84 71 63 61 60 53 48 49 48 49 55 60 64 66
27 34 32 38 43 47 52 49 46 48 49 53 57 62 67 72 75 80 83 84 81 78 73 54 48 50 50 46 45 47 48 47 47 46 45 45 47 49
33 34 37 37 42 43 41 41 46 49 54 58 62 67 73 77 79 78 74 67 53 46 44 41 44 40 41 45 47 48 49 48 44 39 37 35 34 33
29 27 28 33 34 35 39 45 50 54 58 63 69 72 72 68 60 50 43 41 42 47 45 35 37 35 39 44 47 51 49 45 41 37 32 32 30 27
22 24 27 30 34 39 44 50 53 57 64 63 62 55 45 42 44 45 45 42 36 35 36 29 32 34 34 39 42 47 47 46 42 42 35 32 31 28
24 27 30 33 37 42 47 51 55 64 59 52 42 42 45 46 41 34 32 34 32 30 28 27 30 34 35 34 35 41 42 43 38 38 38 39 29 25
27 31 33 35 40 46 50 55 59 56 43 37 38 41 43 37 32 33 32 30 28 29 32 32 31 35 32 30 32 38 37 38 35 34 34 35 30 25
30 32 34 36 44 47 52 57 53 39 33 32 34 37 40 37 33 32 31 30 32 33 33 32 32 32 32 34 33 34 29 32 34 32 33 33 33 33
32 34 37 40 45 50 56 52 38 32 31 31 32 35 38 38 34 31 30 31 31 34 37 34 33 33 34 39 35 30 32 29 30 32 32 33 29 27
36 38 41 43 48 51 54 42 33 33 32 32 32 35 36 38 38 35 32 30 31 30 31 34 33 34 38 41 37 36 32 35 37 35 31 30 29 23
37 39 41 43 46 50 47 36 34 33 32 33 34 35 36 36 37 37 34 32 31 31 32 32 30 32 36 38 42 36 36 36 36 31 29 25 26 24
37 39 41 42 47 49 41 35 34 35 35 36 36 37 36 34 35 36 35 33 32 33 34 33 32 32 32 31 38 43 33 32 27 25 21 19 17 23
39 41 43 46 47 45 36 33 34 34 33 34 34 35 34 32 33 34 36 34 32 33 34 36 36 36 37 34 32 38 38 27 23 21 20 20 17 18
39 41 44 47 49 40 34 32 32 32 32 33 33 33 33 33 33 34 35 36 35 34 34 36 38 39 38 37 36 35 34 31 26 22 19 16 17 19
40 43 44 48 49 37 33 31 31 32 32 32 32 32 32 34 33 33 34 34 35 36 36 37 37 36 37 37 37 32 26 25 27 28 29 28 29 28
41 44 46 50 47 35 32 30 31 32 30 29 32 34 36 35 34 34 33 34 36 37 38 36 35 37 38 37 36 28 19 18 18 21 27 32 32 31

GFSNE_500_spd_069.txt.gz
Wind_Speed
67 66 63 61 59 57 56 59 61 48 59 52 53 61 63 61 65 55 62 60 65 60 59 58 64 62 57 56 56 59 63 68 69 66 70 69 74 77
65 65 66 65 62 54 55 56 57 54 52 56 55 61 63 62 60 59 61 62 59 58 55 56 58 58 58 60 63 65 64 66 69 70 75 80 79 80
64 63 63 62 59 59 54 59 63 65 69 63 60 60 60 60 60 65 60 57 58 61 60 58 60 63 67 69 66 68 71 74 76 78 79 79 79 80
60 59 59 58 60 61 55 69 61 64 65 63 59 55 58 58 59 57 64 65 62 65 64 64 66 67 70 72 73 72 74 76 78 79 81 83 86 87
59 57 55 55 55 57 59 61 60 60 57 55 54 58 60 55 59 62 62 63 64 62 63 64 66 68 71 73 75 77 80 83 86 87 90 93 95 97
48 48 47 48 51 53 53 52 52 51 52 54 55 56 57 62 62 63 60 61 61 64 66 69 71 75 78 81 84 87 89 90 88 87 82 74 67 65
39 39 39 40 42 45 43 42 46 48 52 55 57 57 58 54 54 57 59 62 67 70 72 77 78 82 83 83 83 81 76 66 57 50 47 49 52 56
30 35 33 33 39 36 38 42 46 51 48 51 50 45 48 52 56 61 65 69 74 76 76 76 75 67 64 58 54 51 45 41 43 44 46 48 51 55
28 29 23 25 30 36 42 41 43 43 40 41 46 48 52 59 62 65 67 69 68 65 60 50 47 44 47 48 45 40 40 40 42 44 46 46 45 46
14 22 27 26 31 35 35 29 30 35 39 44 48 51 58 62 62 59 53 50 52 52 49 43 43 37 38 41 39 38 40 43 43 40 37 38 38 38
16 19 22 22 22 23 26 30 34 39 44 48 51 57 61 57 47 47 49 48 42 40 36 35 37 32 31 35 37 40 43 43 37 38 38 38 34 31
16 17 18 21 23 26 30 33 39 43 48 50 56 58 52 46 43 45 45 39 35 38 33 29 31 30 29 36 38 43 43 40 38 42 44 42 39 34
18 21 24 26 29 31 33 36 41 47 50 53 56 50 42 39 41 41 42 37 35 34 32 28 32 33 33 32 35 39 38 38 41 41 40 38 37 36
24 26 29 31 33 35 37 41 44 49 51 54 51 40 38 40 37 38 41 40 36 33 32 30 31 32 31 31 29 32 37 40 40 37 37 38 39 37
29 31 33 34 36 39 41 42 45 48 53 52 43 38 38 36 36 37 39 42 40 37 34 34 32 29 30 30 29 33 33 33 36 35 35 39 38 34
33 34 36 37 39 41 42 42 44 47 51 44 40 38 38 38 39 39 38 38 39 38 38 36 35 32 31 33 34 32 31 29 31 33 31 35 31 27
35 36 38 39 40 41 43 45 45 49 46 40 39 40 40 40 40 38 37 36 37 37 36 37 36 33 32 36 34 36 31 32 34 32 27 27 29 23
38 38 39 40 41 41 43 44 46 46 42 38 38 38 37 36 36 36 35 35 34 36 37 36 35 31 31 34 40 39 36 36 34 32 25 20 25 26
39 39 40 40 40 41 43 44 45 42 40 37 38 36 35 34 34 34 35 35 33 35 37 36 35 33 28 27 34 43 38 34 28 26 22 17 17 22
39 40 40 40 41 42 43 45 44 41 39 36 36 36 35 34 34 34 35 36 33 33 34 36 37 36 32 29 27 34 43 33 23 20 17 18 17 18
40 40 41 41 42 43 45 48 45 40 37 35 36 35 33 33 36 38 37 36 33 33 33 35 38 39 36 33 32 35 38 37 23 16 17 15 16 21
40 42 42 43 44 46 48 51 45 39 35 33 34 31 30 34 35 36 36 32 32 32 31 35 37 41 39 33 33 35 36 32 28 24 24 20 19 18
42 43 44 46 47 49 52 55 46 38 32 31 31 28 30 35 35 37 34 29 29 30 31 33 36 41 38 34 35 37 35 26 23 24 28 32 32 33

GFSNE_500_spd_072.txt.gz
Wind_Speed
65 65 64 65 64 65 64 62 60 54 51 54 58 62 55 57 49 50 46 53 61 63 63 63 60 61 63 57 49 55 56 57 56 53 57 61 62 64
66 66 64 63 62 61 59 60 60 59 57 60 69 59 56 52 47 56 66 64 59 58 58 56 57 55 57 56 57 55 56 56 58 62 63 65 67 66
60 62 61 60 59 59 60 59 58 59 55 63 53 58 49 52 64 75 64 59 61 62 60 57 60 63 63 61 61 62 62 62 64 66 67 69 72 75
53 54 56 55 54 54 54 56 56 56 58 61 61 52 59 65 66 62 59 60 62 61 60 64 64 66 66 63 60 60 61 63 66 68 70 72 75 76
48 47 49 50 49 48 47 49 51 52 52 50 57 64 67 63 59 60 60 59 61 63 60 57 56 60 62 63 66 68 69 71 73 75 78 80 83 85
32 36 41 41 40 38 36 41 43 46 49 54 55 54 55 55 57 58 62 58 53 55 58 61 63 66 70 71 74 75 76 77 77 78 77 76 73 70
31 30 26 29 35 34 28 33 42 46 47 44 44 48 51 53 46 41 45 50 55 58 63 66 66 68 70 71 71 70 67 64 61 56 51 46 43 44
25 15 19 23 18 21 29 35 42 46 35 40 43 38 36 38 42 44 50 58 61 63 63 63 62 58 58 57 56 54 51 49 45 40 37 39 40 42
21 17 19 19 20 29 28 29 32 35 34 26 29 33 37 41 47 51 56 60 60 58 54 50 49 46 45 43 41 39 38 37 36 34 35 37 39 40
19 18 21 17 18 21 19 19 22 23 26 30 34 38 43 47 50 53 56 54 50 49 47 40 37 38 38 37 34 33 32 33 34 36 37 35 33 33
18 18 18 19 18 19 19 22 24 26 30 34 38 42 45 46 51 52 47 44 44 43 42 38 37 32 35 35 36 36 36 37 38 36 32 32 34 36
19 20 20 21 23 25 26 27 29 32 35 39 41 43 47 50 50 46 42 41 38 38 39 37 36 32 29 36 38 38 40 41 37 34 34 36 37 36
22 23 25 26 28 30 31 32 34 36 37 39 42 45 49 49 46 44 40 38 39 40 39 38 34 31 30 29 33 37 39 37 37 38 38 39 38 38
27 28 30 31 33 34 35 35 36 36 38 40 43 45 46 47 43 41 40 41 42 41 39 38 37 31 29 30 30 33 34 34 36 37 38 39 40 40
30 32 34 35 36 37 37 37 38 39 40 41 42 43 45 45 41 40 40 39 40 39 37 36 36 34 31 30 28 29 27 30 35 37 36 36 37 37
32 34 36 38 39 39 38 38 39 40 42 43 42 43 44 42 39 39 38 37 36 36 37 36 36 35 31 31 31 30 30 29 30 33 32 34 32 31
34 37 38 40 39 39 39 39 40 41 42 43 43 44 43 40 39 38 36 35 34 34 35 37 36 35 34 34 32 37 33 29 30 30 30 26 30 24
37 38 40 40 40 40 39 40 40 42 43 44 44 44 42 38 38 39 36 35 35 35 36 37 35 31 32 34 39 35 35 31 33 35 32 17 24 27
38 39 40 40 39 40 40 42 42 44 45 46 46 45 41 36 37 37 34 35 37 38 39 37 34 31 30 29 35 39 31 32 30 30 30 22 19 25
39 39 41 41 41 42 43 44 46 47 48 50 49 46 40 34 35 33 32 34 35 37 36 35 33 31 32 32 27 30 38 35 33 29 27 23 19 18
40 41 42 41 41 43 46 48 50 51 54 56 52 47 36 31 32 29 31 34 36 36 31 30 30 30 32 33 31 30 33 37 38 31 22 20 21 23
42 43 44 45 47 49 50 52 52 58 60 56 49 40 30 29 29 28 32 34 34 34 30 28 28 28 32 33 34 31 29 33 38 35 26 20 20 21
44 45 46 48 50 51 52 53 60 63 56 48 38 28 26 26 25 26 29 32 33 32 31 28 27 28 32 34 36 33 31 33 32 26 30 32 28 24

GFSNE_500_spd_075.txt.gz
Wind_Speed
43 46 52 57 62 65 64 64 63 64 63 63 62 48 48 59 57 53 66 66 37 37 46 47 55 60 56 58 57 56 55 56 55 53 55 54 56 58
46 47 50 52 59 64 62 61 57 57 58 58 57 56 59 57 53 44 42 50 53 54 58 60 62 59 57 58 56 55 54 55 57 60 59 61 62 60
46 49 53 54 51 60 57 55 54 57 56 54 54 51 56 59 59 65 68 68 64 67 67 63 61 60 62 58 58 60 62 60 61 62 63 64 64 65
43 45 50 55 50 49 47 46 47 48 46 46 50 51 51 53 55 59 63 62 64 68 63 61 58 56 53 52 52 53 54 55 56 58 60 62 63 64
38 39 40 40 43 35 34 37 39 40 40 40 41 44 47 49 52 55 52 56 53 53 53 50 45 49 52 55 58 61 62 64 64 66 68 71 73 74
37 37 36 34 35 29 25 27 32 36 34 30 36 44 45 48 48 50 52 50 46 44 44 48 52 56 58 61 62 64 66 68 69 70 72 73 75 77
35 31 31 28 26 23 22 22 24 25 27 28 37 39 40 40 43 37 35 36 39 44 48 50 55 59 63 64 64 63 61 60 60 61 61 58 55 54
32 29 28 28 25 24 25 21 24 24 25 31 38 39 33 26 29 32 36 41 42 44 51 55 57 59 58 56 54 51 48 47 45 43 42 41 40 40
28 28 28 26 25 25 24 23 25 22 20 20 23 24 27 31 34 37 41 44 48 48 50 52 52 51 50 50 46 43 41 38 36 34 33 32 33 35
26 24 22 21 21 21 20 22 22 23 25 26 28 31 33 37 40 42 45 47 47 47 48 45 43 43 46 47 44 41 38 36 36 36 35 35 36 37
25 25 25 25 25 25 25 26 26 27 29 32 34 36 38 40 42 45 44 44 45 47 48 41 40 41 45 46 42 39 36 36 37 38 37 34 32 32
25 25 25 26 27 29 30 32 33 33 34 35 35 36 37 40 42 41 42 43 44 46 44 42 43 40 38 41 42 39 38 38 39 38 32 28 30 33
26 27 28 29 30 32 33 34 35 36 36 35 36 37 38 40 40 41 41 42 45 45 42 39 39 38 36 33 36 36 36 38 40 37 34 34 35 35
27 28 29 31 33 35 37 38 38 38 37 36 37 37 39 41 41 41 42 44 43 42 39 36 35 35 33 31 31 33 33 36 38 36 36 38 38 38
30 31 33 34 36 37 38 39 39 39 37 37 38 39 41 42 42 43 44 45 43 40 38 35 34 32 31 31 29 31 29 32 36 36 35 37 37 38
33 33 35 37 38 38 40 41 40 40 39 40 40 41 43 44 44 45 46 44 40 40 39 37 36 35 33 33 31 31 33 31 30 30 29 35 37 38
34 35 38 39 39 41 42 42 41 40 40 42 44 45 46 47 48 49 49 44 39 38 38 37 38 38 38 35 31 33 32 32 31 28 27 30 37 34
35 37 39 40 41 42 43 42 41 42 44 45 47 48 49 51 53 52 50 40 36 36 33 36 37 36 36 33 34 32 32 33 33 32 29 29 34 34
37 39 41 41 42 44 44 44 45 47 48 49 50 52 57 60 57 51 42 36 33 31 33 35 37 37 30 25 32 37 30 33 30 28 30 33 30 32
37 40 41 42 43 45 46 47 48 50 50 51 55 61 61 56 49 41 34 31 29 28 32 35 35 33 27 23 23 31 36 32 29 27 29 33 31 25
39 41 41 42 43 46 47 49 51 51 52 56 62 64 57 49 38 30 27 25 25 27 30 32 33 31 28 25 24 27 32 35 32 28 30 27 23 24
41 42 42 42 46 48 49 51 52 52 55 61 64 60 49 35 24 21 20 22 23 24 27 29 31 30 30 27 27 28 29 32 36 34 34 26 17 18
42 42 41 43 46 47 51 52 51 54 57 62 61 51 34 20 15 16 18 20 21 25 26 27 29 30 30 29 28 28 29 30 33 32 37 32 24 22

GFSNE_500_spd_078.txt.gz
Wind_Speed
39 41 41 41 41 46 49 51 58 68 68 64 56 52 43 53 60 52 52 54 47 46 46 41 36 38 44 49 65 57 56 61 49 52 54 55 54 54
40 41 41 41 41 41 44 50 55 59 51 48 45 46 59 36 37 43 40 43 50 56 55 55 58 67 61 62 60 57 51 52 54 55 56 55 54 54
38 41 43 43 42 43 43 44 48 47 43 37 36 40 43 50 46 48 54 55 53 51 50 53 56 57 54 53 52 53 52 51 51 53 55 57 59 60
38 40 42 42 44 42 39 38 41 41 35 34 31 32 36 34 37 38 43 46 48 48 49 51 52 52 48 47 42 39 42 45 48 51 54 56 57 57
41 40 41 41 40 38 37 37 36 35 32 29 30 34 34 34 36 36 42 43 44 46 45 47 44 37 38 40 42 45 48 51 54 56 58 60 62 64
38 38 39 39 38 35 37 39 36 33 30 26 26 26 25 26 27 35 36 38 39 37 37 36 39 41 43 46 49 51 53 55 58 59 60 61 62 65
37 40 38 35 34 35 35 35 34 29 27 26 24 24 26 31 34 40 36 28 30 32 35 39 41 45 47 50 53 55 57 58 57 54 52 52 51 53
37 34 32 32 32 30 29 27 25 26 26 26 26 26 26 26 28 29 32 34 36 39 40 42 45 47 50 51 55 57 57 54 48 46 43 42 41 41
31 30 29 29 28 27 27 26 27 28 29 30 30 30 31 33 35 36 38 40 42 43 45 47 49 51 50 51 53 52 49 46 45 42 39 39 38 38
27 28 29 29 28 28 28 29 30 31 32 33 33 35 36 38 39 40 41 42 42 44 45 45 46 48 48 50 49 49 46 44 42 40 37 36 37 39
27 28 28 28 28 29 30 32 33 34 36 37 37 37 38 39 39 40 41 42 44 44 45 44 46 46 46 48 47 45 43 40 41 39 35 35 36 36
28 28 28 29 30 31 33 35 36 38 38 39 40 40 39 39 39 40 41 43 46 46 45 46 46 45 43 45 45 42 41 39 40 38 33 33 33 31
28 28 29 30 31 33 35 37 38 39 40 41 41 40 39 39 40 40 43 45 46 47 46 47 47 46 43 39 41 41 40 40 41 39 36 34 32 30
28 30 31 33 33 35 37 38 39 40 41 42 41 40 38 39 41 42 44 46 48 48 48 48 48 46 41 38 36 39 38 38 39 38 37 37 35 33
30 31 32 33 35 37 39 39 40 41 42 42 41 39 40 43 45 46 47 49 51 52 52 52 49 45 40 38 37 38 39 38 39 36 35 39 38 36
31 32 34 35 36 38 39 40 41 42 44 44 43 44 45 47 48 49 50 52 56 58 56 52 46 40 38 37 37 38 40 37 35 33 33 36 34 34
32 34 35 36 38 40 40 41 41 44 45 45 46 47 49 50 51 53 58 62 59 54 50 46 39 35 33 35 37 38 37 33 31 30 32 31 34 34
33 34 36 37 40 41 41 41 42 46 47 48 49 50 52 53 57 62 64 59 53 48 42 38 35 30 31 35 38 37 32 28 27 29 30 29 32 38
34 36 37 38 41 42 41 41 45 48 49 50 51 52 54 58 65 66 59 52 44 37 33 30 28 26 29 30 33 38 29 28 25 28 30 31 28 33
35 36 38 40 42 43 42 42 47 49 51 52 52 53 56 62 65 60 47 37 30 24 22 23 25 27 29 28 27 33 36 30 26 27 28 28 29 31
36 37 38 41 43 44 42 44 47 50 52 52 52 53 57 61 60 46 31 22 15 14 18 21 22 25 27 27 27 28 32 33 28 26 28 26 24 29
38 38 39 42 45 43 43 46 50 54 51 50 50 52 57 56 47 32 20 13 12 15 17 19 24 26 28 29 29 28 30 32 32 31 32 27 26 22
39 39 41 44 46 44 44 47 51 55 51 49 49 51 55 49 38 23 16 15 18 20 20 24 26 28 30 31 31 30 30 29 29 30 35 33 31 27

GFSNE_500_spd_081.txt.gz
Wind_Speed
37 40 38 39 40 41 44 47 48 48 47 44 48 54 52 47 45 42 43 53 45 42 32 32 36 37 37 44 37 41 41 44 46 48 49 49 45 55
38 40 38 38 40 42 45 45 46 47 44 41 44 46 42 39 36 33 34 37 38 39 42 43 38 39 40 40 45 48 45 43 44 45 45 47 47 50
39 39 38 40 42 45 44 44 45 44 41 43 44 42 37 33 34 35 28 26 32 33 34 36 35 36 37 38 41 44 43 41 39 41 42 42 43 47
39 39 42 43 44 45 45 45 42 40 41 43 42 38 34 32 27 27 28 34 39 36 38 35 35 33 31 31 29 29 30 32 35 38 41 44 46 49
38 40 41 42 44 45 46 39 37 38 39 37 36 35 34 33 30 29 28 28 33 36 34 35 29 30 28 28 30 32 34 36 40 44 46 48 51 54
40 39 39 42 44 43 37 34 34 33 32 30 30 30 31 30 30 31 32 35 36 35 37 30 30 31 32 35 35 37 39 41 43 46 49 52 56 59
37 38 39 42 40 35 32 32 32 31 29 31 32 34 34 35 35 35 35 37 35 35 37 37 38 39 40 41 43 44 45 44 45 47 52 54 54 51
37 38 40 37 33 32 32 31 29 29 31 32 33 34 35 35 36 37 38 40 40 40 41 41 43 43 43 45 45 46 47 47 47 48 51 49 47 45
37 38 35 31 31 31 31 30 30 31 32 34 36 36 37 39 40 41 42 44 44 43 43 42 43 44 46 46 48 48 48 47 47 46 48 46 43 43
35 33 30 30 30 29 30 31 31 32 33 36 38 39 40 42 41 42 42 42 43 44 44 44 44 46 48 48 49 49 48 47 45 45 43 41 39 41
33 30 29 30 30 31 32 32 32 33 35 37 39 40 42 43 43 43 41 40 41 42 43 45 48 49 50 50 50 50 48 47 44 43 42 40 36 37
30 28 28 29 30 31 32 33 34 35 37 38 40 41 42 44 45 43 39 39 40 43 45 46 48 49 52 53 53 52 51 50 46 44 41 37 35 35
28 28 28 30 31 32 33 35 36 37 38 40 41 42 44 45 44 43 43 44 45 46 47 47 51 52 53 53 52 51 50 49 46 44 42 39 35 35
27 28 30 31 32 33 34 35 37 39 40 41 41 43 46 47 45 44 45 47 48 50 51 52 53 55 56 54 48 46 44 44 43 42 42 41 40 37
27 28 30 32 33 34 35 36 38 40 42 42 43 45 48 48 48 47 49 50 52 55 59 62 62 59 57 52 45 43 41 41 41 41 41 40 39 38
29 30 31 33 34 36 36 37 39 41 43 44 45 47 50 50 49 49 51 54 58 65 68 64 58 54 49 44 39 38 38 36 37 39 38 38 37 35
30 31 33 34 36 37 36 38 40 43 44 45 47 48 51 53 52 51 54 57 64 67 64 58 50 43 39 34 31 31 30 33 34 35 33 30 33 34
31 32 34 36 37 36 37 39 42 45 46 46 49 52 56 53 51 51 56 61 64 60 48 40 36 31 24 22 22 25 30 31 31 30 27 24 27 34
31 34 36 38 38 37 38 40 44 47 46 47 49 52 57 51 51 51 55 59 56 45 34 26 21 14 14 19 24 31 27 31 29 28 27 25 25 30
33 36 38 39 39 39 39 42 46 48 47 47 49 55 57 50 49 50 56 53 45 32 22 14 11 13 14 17 20 29 30 28 28 26 27 28 27 29
36 38 39 40 41 41 41 43 48 50 47 50 53 58 54 48 48 49 53 47 37 26 19 18 17 16 18 21 22 25 31 33 30 27 26 26 26 26
39 41 41 42 42 42 43 44 48 49 47 50 54 55 49 48 48 48 51 44 37 29 25 25 26 25 26 27 26 27 30 33 35 33 31 27 25 23
43 43 44 44 42 43 43 45 48 48 49 51 56 51 47 48 47 47 50 45 38 35 33 32 32 33 33 34 33 32 33 34 33 32 36 34 31 27

GFSNE_500_spd_084.txt.gz
Wind_Speed
37 36 35 34 36 37 37 38 41 42 46 46 47 45 43 42 45 44 43 43 39 31 20 28 34 34 33 38 37 30 29 29 36 41 38 37 37 43
37 35 34 34 37 36 38 41 42 46 47 47 44 41 41 42 39 38 38 36 33 26 22 25 35 35 32 33 31 34 32 31 33 37 38 39 35 39
36 35 34 35 37 37 40 41 43 46 47 43 39 38 38 35 33 34 32 32 32 30 30 31 32 32 34 32 31 29 30 30 32 35 33 34 34 35
35 34 35 36 37 38 38 40 42 45 41 37 35 33 31 29 30 30 30 31 32 32 32 35 37 37 34 32 28 27 25 26 28 30 32 34 34 35
33 33 34 36 37 37 39 41 43 39 36 35 34 31 30 32 32 33 34 34 35 35 36 36 36 34 29 28 25 26 27 29 29 32 34 36 39 42
32 32 33 35 35 36 39 41 38 35 35 32 30 31 32 33 33 34 35 36 38 39 40 41 41 40 38 36 34 34 33 35 36 37 36 37 40 43
31 31 32 33 35 38 39 36 34 33 32 31 32 33 33 34 35 36 38 39 40 41 43 44 44 44 44 42 41 40 38 39 41 41 41 41 42 43
29 29 31 32 36 38 36 32 32 31 31 32 32 33 34 34 37 38 40 40 42 43 45 43 43 43 43 41 41 40 41 43 43 45 45 45 46 47
29 30 31 34 35 35 32 31 31 31 33 33 33 34 35 36 38 40 41 42 44 45 45 42 43 43 42 42 43 44 44 44 45 45 46 47 48 48
28 29 32 33 33 31 30 30 32 34 34 34 35 36 37 39 40 41 42 44 46 44 42 41 39 41 42 44 47 48 48 47 48 48 48 48 48 46
27 29 31 32 30 29 29 30 32 33 34 35 36 37 38 40 41 43 44 47 48 43 41 42 45 46 46 46 48 50 51 52 52 51 50 49 48 46
27 28 31 29 29 29 30 32 32 34 35 36 37 38 40 42 44 45 47 50 47 44 44 43 46 48 49 51 53 55 55 55 54 54 52 51 49 46
26 28 27 26 27 29 30 32 33 35 36 37 38 40 42 43 45 48 49 52 49 46 45 46 50 52 54 57 62 63 60 60 58 57 54 49 45 43
27 26 26 27 28 29 31 33 35 36 38 38 40 41 44 46 47 49 52 55 50 47 47 50 54 59 63 60 57 58 54 51 49 46 43 41 40 39
27 27 28 28 29 31 33 34 36 37 39 39 42 44 46 47 48 50 55 55 49 48 49 54 60 59 57 52 47 46 46 41 42 38 34 33 36 37
26 27 29 30 31 32 34 35 37 39 40 41 43 45 47 48 50 52 57 55 50 48 50 55 54 52 48 39 32 31 33 31 30 27 27 31 35 36
27 29 30 30 30 32 34 36 39 41 42 42 44 46 48 49 50 54 58 52 48 47 52 52 46 43 38 29 22 20 18 17 16 22 26 27 30 32
26 28 30 29 30 33 35 38 41 42 42 44 46 47 50 49 51 54 54 48 48 47 49 49 42 36 27 19 11 13 15 17 22 24 24 22 23 28
30 31 31 33 34 35 38 41 44 45 44 45 46 49 49 48 52 56 49 49 49 46 48 46 38 31 24 18 20 18 17 20 21 23 24 23 22 23
31 32 33 35 37 39 41 44 45 46 45 45 47 49 50 49 53 53 48 49 48 47 48 46 38 32 28 23 23 26 25 24 25 25 26 25 23 23
35 36 36 38 40 43 46 47 47 46 45 46 47 49 49 50 53 51 49 50 47 46 46 46 43 37 33 31 29 31 34 33 30 29 30 28 25 23
38 38 39 41 43 47 50 47 46 44 45 46 47 49 49 50 52 51 50 49 48 47 46 47 45 42 39 36 35 34 36 39 39 37 36 34 29 23
40 41 43 46 49 50 47 45 44 44 45 47 48 49 50 51 53 52 51 51 50 49 49 48 48 46 43 41 40 40 39 39 41 40 41 43 37 31

GFSNE_500_spd_087.txt.gz
Wind_Speed
41 42 42 39 36 34 32 32 34 32 35 36 39 42 44 42 38 37 37 34 32 32 32 32 31 29 28 28 29 28 29 26 29 33 32 34 33 34
43 47 43 37 35 34 31 32 33 34 35 38 40 42 41 37 36 35 32 31 32 31 30 32 32 32 33 34 34 35 34 34 34 34 31 33 34 34
46 43 39 36 35 32 31 32 34 35 37 38 39 39 36 35 33 30 30 32 33 34 34 33 35 35 36 36 36 36 36 36 36 38 37 36 36 39
42 39 37 35 32 31 30 32 34 35 37 38 38 35 34 33 31 30 32 33 33 34 35 36 37 38 39 39 38 35 30 32 33 33 32 32 31 32
39 37 36 33 31 31 30 32 33 35 36 35 34 33 31 31 32 32 32 32 34 36 38 39 40 41 42 41 40 37 35 33 33 33 34 34 34 35
37 34 32 30 30 29 30 31 33 33 33 33 31 30 32 32 32 31 32 33 36 37 38 40 41 44 45 45 42 41 38 36 37 38 39 39 39 39
33 32 30 29 28 28 29 31 31 32 31 31 30 31 32 33 32 33 34 35 36 38 39 42 44 46 44 43 42 41 39 38 37 37 37 39 41 43
30 29 27 27 28 27 29 30 30 30 31 29 30 31 32 32 33 34 34 36 37 40 43 44 48 45 41 40 40 40 40 39 39 40 41 41 42 43
28 27 25 27 27 28 28 29 29 30 30 30 30 31 31 32 33 34 36 38 40 42 46 47 48 43 39 39 41 42 43 45 45 45 46 46 46 46
26 26 26 27 27 27 27 28 28 29 29 30 31 32 33 34 34 35 37 40 42 44 47 49 49 43 41 42 43 44 46 47 49 51 51 51 50 49
26 25 26 26 25 26 27 27 28 28 29 30 32 33 34 35 36 38 40 42 45 47 48 52 51 44 42 43 45 48 50 52 53 54 55 56 55 52
25 26 25 25 25 25 25 26 27 27 29 31 33 34 35 36 38 40 42 44 46 48 50 53 49 44 44 46 50 54 57 59 59 60 60 59 56 53
25 24 25 24 24 25 26 27 27 29 30 31 33 35 37 39 40 42 43 44 47 49 51 52 47 46 44 48 54 54 52 55 56 55 53 50 48 46
25 25 24 24 25 27 28 28 28 29 30 32 34 36 38 40 42 43 44 45 48 50 52 48 46 45 46 49 49 48 49 48 42 40 36 34 35 36
25 24 25 25 25 27 28 28 28 29 31 33 36 39 40 41 43 45 46 47 49 50 52 46 47 46 46 46 42 42 42 37 32 27 23 24 24 24
25 25 25 26 27 28 28 27 29 31 32 35 38 41 42 44 45 46 47 49 50 51 48 46 48 46 46 43 39 37 35 24 21 15 12 16 20 23
25 25 26 26 26 27 29 30 32 33 35 37 40 43 44 46 47 47 48 49 50 52 46 44 46 44 44 41 38 34 31 23 18 18 17 22 25 26
25 25 24 26 28 29 31 33 34 36 38 41 43 45 46 47 47 47 48 50 52 52 46 44 45 42 42 40 36 34 31 26 23 22 21 19 24 25
27 27 28 29 30 31 32 34 36 38 41 44 47 47 47 46 47 48 49 51 53 52 48 45 44 42 41 39 37 37 34 31 28 26 24 23 21 25
30 31 33 34 33 34 35 37 39 42 45 47 46 46 46 46 48 50 51 51 53 54 52 49 46 45 42 40 37 39 38 37 35 34 33 29 26 25
32 33 34 35 37 38 39 40 42 45 48 47 44 45 45 48 51 51 53 53 55 55 53 51 50 49 47 45 41 40 40 41 41 39 38 36 34 31
33 35 36 37 40 40 43 45 46 49 49 45 44 44 46 49 51 54 55 57 58 55 52 52 53 53 51 50 47 44 44 44 44 44 43 41 37 34
33 35 37 39 41 43 47 49 49 49 47 43 43 44 48 50 53 55 55 55 53 53 53 54 56 56 55 53 52 51 50 48 46 46 46 45 42 39

GFSNE_500_spd_090.txt.gz
Wind_Speed
52 46 44 42 41 42 44 41 37 34 31 33 34 36 37 39 39 38 35 34 33 28 29 32 33 33 34 34 35 36 35 35 34 32 30 32 32 29
43 41 41 41 42 43 41 38 35 33 32 35 35 36 37 38 37 35 34 33 31 31 32 33 34 34 35 36 37 38 38 39 39 37 36 36 35 38
42 41 41 43 43 42 39 36 34 32 34 34 34 36 36 35 34 33 32 32 32 34 32 32 33 35 37 38 38 39 40 42 42 42 40 35 36 38
43 43 43 42 40 39 37 34 32 34 34 33 34 34 34 33 32 31 32 32 33 31 31 33 35 36 37 39 41 43 45 45 44 42 40 37 37 37
42 44 45 41 40 37 34 31 34 33 33 33 33 33 32 32 31 31 31 32 32 33 34 35 36 37 39 40 42 43 44 44 42 40 39 39 40 40
46 42 42 38 37 34 31 34 32 32 33 32 32 31 31 31 31 31 31 32 33 34 35 37 37 39 41 43 45 44 41 39 38 38 38 38 40 43
40 38 37 37 32 34 31 31 31 32 31 31 31 30 31 31 30 30 31 32 33 34 36 37 38 42 44 46 47 45 41 39 39 38 37 38 40 42
37 42 35 31 34 30 31 31 32 31 30 30 29 30 30 30 29 30 31 32 33 35 37 39 41 43 45 48 49 46 42 39 40 40 41 42 43 45
39 35 29 33 31 29 30 31 30 29 30 29 29 29 29 28 30 31 32 34 35 37 39 41 43 44 47 50 51 45 42 42 43 44 44 46 47 49
30 27 32 30 29 30 30 29 29 29 28 28 28 28 27 29 30 31 33 35 37 39 41 43 44 46 49 51 49 44 45 46 45 46 49 52 54 55
30 32 30 29 29 28 28 28 28 27 27 27 27 27 28 30 31 32 33 35 38 41 42 44 46 48 50 51 46 46 47 46 47 49 50 50 52 56
30 29 28 27 27 28 28 27 26 26 27 27 27 28 29 30 32 34 37 38 40 42 44 45 47 50 53 51 46 46 48 47 47 46 45 49 51 52
28 28 27 27 27 27 28 27 28 28 27 28 28 28 30 32 34 37 39 41 43 45 46 47 49 52 54 48 46 47 47 45 44 42 41 43 44 43
27 27 26 27 27 28 28 29 28 28 27 27 27 29 31 33 36 39 41 43 45 47 47 48 50 52 52 48 46 47 44 44 41 38 36 35 33 28
27 27 26 27 27 28 29 28 28 27 27 28 29 31 33 34 38 41 43 45 47 47 48 49 52 53 52 48 45 45 44 43 40 37 35 31 26 18
27 26 27 27 28 29 29 28 26 27 29 31 32 33 34 38 41 43 45 45 47 47 49 50 52 52 53 50 47 46 44 42 39 36 34 30 27 23
26 27 27 28 29 28 27 26 27 29 30 31 33 35 36 40 44 45 45 45 46 49 51 51 51 52 55 52 47 45 45 43 38 36 35 33 30 28
27 27 27 28 28 28 28 28 30 30 32 34 36 38 40 43 47 46 44 44 46 50 52 52 53 55 56 52 48 47 46 44 40 39 37 36 35 33
28 28 29 30 31 32 33 34 34 33 34 36 38 41 44 47 48 45 43 44 48 51 52 54 54 54 52 50 50 50 49 47 43 41 39 39 38 39
30 30 31 32 32 33 36 36 36 37 38 40 42 46 48 48 46 43 42 45 47 50 53 54 53 52 52 51 51 51 52 50 48 46 45 42 40 41
32 34 35 36 35 35 36 36 39 40 41 43 46 48 49 47 43 41 43 45 46 50 53 54 55 54 52 50 53 52 53 53 53 51 50 47 44 44
37 39 38 36 34 34 35 37 40 41 43 46 48 49 49 45 40 41 43 44 47 51 53 54 55 55 54 54 54 54 54 52 50 51 51 52 50 46
37 36 35 34 36 37 39 41 42 43 44 47 48 47 44 40 39 42 42 45 48 51 53 54 56 56 55 56 55 51 49 54 54 53 51 50 49 49

GFSNE_500_spd_093.txt.gz
Wind_Speed
49 44 46 50 45 42 41 41 43 44 42 36 36 35 33 37 38 36 37 36 33 30 29 29 29 30 30 31 32 33 34 34 35 36 38 39 38 36
47 46 49 44 41 41 41 43 43 41 39 36 35 33 34 37 36 37 35 33 31 29 29 30 30 29 30 32 34 34 34 36 37 38 40 40 40 40
51 50 47 42 43 42 43 44 42 40 37 35 32 34 36 35 36 35 33 31 29 29 30 29 29 31 33 34 34 35 37 39 40 42 41 40 40 41
51 46 45 43 39 41 44 44 44 38 35 35 32 35 34 35 35 33 31 30 29 30 29 30 31 32 33 34 35 37 39 40 42 42 42 41 40 41
43 45 44 45 47 47 46 43 40 35 32 33 34 34 34 34 33 31 30 29 29 29 29 30 31 32 33 34 36 39 40 42 44 44 44 42 39 38
43 44 44 44 44 43 41 38 37 31 34 35 33 33 34 32 32 30 29 29 29 29 30 30 32 33 34 36 39 41 42 44 45 47 43 41 39 38
43 41 41 39 41 38 37 38 32 31 34 33 32 33 32 31 30 29 28 28 29 29 30 31 32 34 37 39 41 42 44 46 47 44 39 38 40 41
42 41 42 39 37 39 38 30 33 34 33 31 32 31 31 30 29 28 28 28 28 29 30 31 33 36 38 40 42 43 46 48 48 42 39 40 42 43
44 43 41 41 41 38 34 32 33 32 31 31 31 31 30 29 28 28 29 29 29 30 31 33 36 39 40 42 43 45 47 50 48 42 40 42 44 45
36 40 41 39 37 28 31 33 30 30 30 30 30 30 29 28 28 29 29 29 30 32 35 37 40 41 43 44 46 47 50 50 45 41 42 43 46 45
38 36 36 32 31 30 31 29 30 29 30 30 29 29 28 29 29 29 29 30 32 34 37 40 42 44 44 45 47 49 50 49 45 42 42 43 44 44
36 34 30 31 30 30 28 29 29 29 29 29 29 29 29 29 29 29 30 31 33 36 39 42 44 44 44 46 48 50 50 49 46 42 41 41 42 43
34 30 32 30 29 28 28 28 29 30 30 30 31 30 29 30 29 30 31 33 36 38 42 43 44 43 44 47 50 51 50 49 47 44 43 42 42 41
30 29 29 28 28 28 28 29 29 29 31 31 30 29 29 30 30 32 34 35 37 39 43 43 42 42 45 49 51 53 52 51 47 44 41 41 40 40
30 28 27 28 28 27 28 29 29 30 31 30 29 29 29 31 32 33 35 37 40 43 45 43 41 43 46 48 51 53 52 52 46 42 41 40 39 38
29 28 27 28 27 27 28 29 30 31 30 28 29 29 30 31 34 35 37 40 43 45 43 41 41 44 46 49 52 53 52 50 48 44 42 42 41 38
28 27 28 28 27 28 29 29 30 29 28 28 29 30 32 34 35 37 41 43 45 45 42 40 42 43 46 50 52 53 54 52 47 45 45 46 44 42
27 29 28 28 28 28 28 30 31 31 31 32 33 34 35 36 38 41 44 45 46 44 40 40 40 42 47 51 53 54 54 51 49 50 51 49 45 45
29 29 29 29 28 29 29 31 33 35 36 37 38 38 39 40 42 44 46 47 47 42 40 39 40 44 47 52 53 55 57 56 53 54 54 53 48 48
31 30 31 31 30 30 31 32 34 36 37 37 38 39 41 42 44 45 47 47 45 40 39 39 42 46 50 53 54 57 57 57 56 56 55 50 47 45
32 33 34 33 32 33 34 37 38 37 36 37 37 40 43 43 44 46 46 45 41 38 38 41 44 47 51 55 55 57 59 58 57 53 48 47 47 45
34 35 35 35 36 37 37 36 35 35 37 39 41 42 44 44 45 44 45 41 37 36 39 43 45 49 53 56 58 57 58 57 53 46 45 48 49 44
34 34 35 37 38 36 35 36 37 39 41 43 45 48 46 45 44 44 42 36 36 36 39 44 47 50 54 57 58 58 56 54 48 44 47 49 50 47

GFSNE_500_spd_096.txt.gz
Wind_Speed
38 42 41 38 38 41 43 43 40 39 39 37 39 40 38 36 34 31 34 33 34 32 31 28 27 27 26 26 26 27 28 29 29 31 33 34 36 37
45 40 37 39 40 43 46 44 40 40 41 38 39 39 36 34 33 33 31 33 33 30 28 27 26 26 26 27 27 28 29 30 31 33 35 36 37 38
40 40 42 44 45 44 42 42 40 39 40 43 40 38 35 32 32 33 30 32 31 29 27 26 25 25 27 27 27 28 30 32 34 35 35 35 35 36
44 44 44 43 43 40 41 41 42 44 47 43 38 36 31 31 32 30 29 30 29 28 27 25 25 26 27 27 28 29 32 33 34 36 37 37 39 40
41 38 36 36 38 39 40 42 41 41 40 40 35 33 31 32 30 30 29 29 29 27 26 25 25 27 28 28 29 31 32 34 35 37 38 39 42 42
42 40 38 38 40 41 41 40 39 39 36 36 32 30 33 30 30 30 28 29 28 26 26 25 26 28 28 29 31 33 35 36 37 38 41 43 45 42
41 41 42 42 42 41 39 35 37 35 36 35 30 35 31 29 30 28 28 28 27 26 26 26 27 28 29 31 33 36 37 37 39 40 43 46 45 41
42 42 43 42 43 42 41 41 38 39 36 30 30 34 29 30 29 28 28 28 28 27 27 28 28 30 32 34 37 37 38 39 40 42 45 47 44 40
43 44 44 44 43 42 38 35 35 36 30 28 33 29 29 29 28 28 28 28 28 28 28 29 30 31 33 35 38 40 40 40 42 45 48 48 45 43
39 40 39 40 39 36 36 35 34 27 30 29 30 29 29 28 28 28 28 28 28 28 28 30 31 32 35 38 40 40 40 40 44 47 48 48 44 43
32 34 32 31 32 34 34 30 28 32 28 29 29 29 28 27 28 29 29 29 29 29 29 31 33 35 37 39 40 39 39 42 44 45 48 47 46 43
36 37 35 36 35 32 30 28 32 29 27 29 28 28 27 28 30 29 29 29 29 30 31 34 35 36 39 39 39 39 41 41 43 47 47 47 46 43
38 38 37 32 31 33 31 29 28 26 28 28 27 27 29 30 29 29 29 29 31 32 33 35 38 40 41 40 40 40 38 41 44 47 48 48 46 43
31 31 32 33 33 33 29 27 27 27 28 27 28 29 30 28 29 28 29 30 31 33 35 37 39 41 42 40 39 38 38 41 44 47 48 48 46 43
31 32 31 32 33 30 28 28 27 28 27 27 29 29 29 28 28 28 29 30 32 34 36 39 40 42 41 39 38 38 41 43 46 49 49 49 47 45
32 32 34 34 29 31 28 28 28 27 27 29 29 28 26 26 27 28 30 32 34 36 39 41 42 42 40 38 37 39 41 45 49 51 51 52 51 47
33 32 32 30 33 28 30 30 27 26 28 28 28 27 28 29 30 32 33 35 38 40 42 43 44 41 38 37 38 41 44 47 51 53 54 53 51 50
32 33 32 34 32 31 32 28 26 26 27 27 29 31 33 34 34 36 37 39 40 41 43 45 43 40 37 38 39 44 46 49 53 56 57 53 49 49
30 31 31 31 32 32 30 28 27 27 27 28 29 30 33 35 35 36 38 39 40 42 44 42 42 37 35 37 42 45 48 51 55 58 58 51 47 44
30 30 31 32 33 32 30 30 30 28 29 30 32 34 34 34 35 36 39 40 42 44 42 43 40 36 34 38 42 47 48 51 56 57 55 48 46 40
31 32 34 34 34 34 32 33 33 32 32 34 35 34 33 34 38 39 41 44 45 42 42 43 37 34 35 38 42 48 51 53 55 55 53 47 45 39
31 33 35 35 35 35 34 35 36 35 36 38 37 35 37 38 42 44 44 43 40 40 43 41 37 34 37 37 42 48 52 54 56 56 53 47 43 36
32 34 35 36 36 34 34 37 36 38 37 35 36 37 39 42 40 40 40 40 40 42 43 39 35 36 38 39 44 49 51 53 55 56 54 48 44 37

GFSNE_500_spd_099.txt.gz
Wind_Speed
42 42 36 37 37 38 36 36 36 36 37 36 34 37 36 35 37 35 33 29 28 30 30 29 28 27 24 22 21 22 23 24 25 25 27 28 30 30
37 36 38 38 38 35 37 38 40 41 36 34 35 37 37 40 38 34 32 29 28 29 29 29 27 26 24 22 22 23 23 24 25 26 27 29 30 32
44 40 42 41 41 40 40 40 41 40 35 36 37 39 40 38 35 31 29 28 27 29 29 28 27 26 23 22 22 23 23 24 26 28 29 30 32 33
43 43 43 43 43 41 39 37 36 34 35 36 37 36 35 36 31 29 28 28 30 29 28 27 27 25 22 23 23 23 24 25 27 29 31 32 34 36
44 41 39 37 35 36 36 36 35 36 37 36 37 35 33 31 30 26 28 29 28 28 28 27 26 24 24 25 24 23 25 27 30 32 33 35 36 38
45 43 41 40 38 38 38 38 38 38 38 35 34 32 31 32 28 26 27 30 29 28 28 27 26 26 25 26 25 25 28 31 32 35 37 38 40 41
49 49 47 44 44 42 40 40 41 39 38 36 35 37 36 28 25 27 27 29 29 27 27 27 26 27 27 27 26 27 29 32 34 37 39 40 41 42
51 51 49 46 43 43 41 42 42 40 39 37 35 35 32 26 26 28 27 29 28 27 26 27 27 27 27 27 29 30 32 35 37 39 39 40 41 40
41 42 41 43 44 43 44 44 42 39 36 33 33 33 27 27 28 27 27 28 26 26 26 27 28 28 28 28 30 33 35 36 39 39 39 39 39 41
42 41 41 42 40 39 40 40 37 35 34 33 33 28 27 26 27 27 27 26 25 26 27 28 28 28 28 30 32 34 36 38 38 37 37 36 38 41
45 41 37 34 33 33 30 29 29 29 31 30 28 29 28 27 26 27 26 25 26 27 28 28 28 29 31 32 34 37 38 38 37 36 34 36 40 42
41 45 41 42 39 33 36 34 32 30 29 30 29 28 28 27 26 27 26 26 27 28 27 27 29 30 32 34 37 38 38 38 37 34 35 39 42 44
35 42 44 39 36 37 40 37 29 30 32 29 25 28 28 25 26 26 26 26 27 27 26 28 29 31 33 35 38 39 39 38 36 34 37 40 44 46
36 35 34 35 35 36 33 30 31 29 28 26 27 28 26 26 26 26 26 27 26 26 27 29 32 33 35 38 40 40 39 37 34 34 37 42 45 48
37 37 38 38 35 32 33 33 31 28 25 28 28 26 25 26 26 26 27 26 26 27 29 32 34 36 38 41 42 42 40 36 33 37 40 44 47 51
33 33 36 36 33 34 32 31 30 26 29 29 28 25 26 27 26 27 27 27 28 29 32 34 36 38 39 41 42 41 39 35 35 39 42 46 49 53
31 34 36 32 32 32 34 30 28 30 31 30 27 26 27 26 25 27 29 31 32 34 35 36 37 39 40 42 41 42 37 33 36 39 42 47 50 54
30 32 32 33 33 35 33 31 30 33 33 30 26 26 26 24 26 30 32 34 35 35 35 36 38 39 41 41 41 40 34 33 35 39 43 47 52 54
29 29 31 33 35 37 35 34 34 35 32 28 28 28 26 25 27 30 32 33 33 34 36 39 40 42 40 40 41 36 33 34 35 38 43 47 49 54
29 30 31 31 32 32 33 35 36 35 31 30 32 30 27 28 31 34 34 32 33 36 39 42 42 38 38 40 39 37 34 35 36 41 46 50 50 53
27 28 29 31 32 31 33 37 37 35 33 34 34 33 31 31 34 36 34 34 36 40 41 38 37 37 39 40 38 37 38 38 38 42 47 50 51 53
25 27 28 29 30 33 35 37 37 37 37 36 36 36 36 36 37 35 36 37 38 38 39 39 39 38 40 40 38 38 41 42 41 43 47 50 49 52
27 27 27 29 32 35 36 37 39 39 38 38 38 39 39 37 36 36 37 38 40 39 40 41 40 40 41 41 38 39 42 44 44 47 51 51 50 50

GFSNE_500_spd_102.txt.gz
Wind_Speed
42 41 42 37 38 40 44 37 38 38 34 36 35 38 37 35 35 36 36 38 34 31 29 26 25 27 26 23 22 23 23 22 21 21 21 23 25 26
43 39 39 39 38 38 36 37 39 39 40 41 41 39 40 36 35 35 36 34 30 29 28 23 25 27 25 23 22 22 22 22 22 21 21 24 26 26
44 44 45 45 45 44 42 42 41 43 44 43 40 38 36 36 34 34 33 34 29 27 24 24 28 26 24 24 22 23 23 23 22 22 23 25 28 29
47 47 46 45 46 47 45 45 47 45 39 35 35 35 37 37 36 34 34 30 29 24 26 25 27 26 25 24 23 24 25 23 23 24 25 27 30 31
54 50 48 46 47 46 46 42 40 38 37 37 36 37 37 37 36 34 34 30 27 27 25 27 27 25 26 25 25 25 26 25 24 26 28 30 32 34
43 42 45 46 45 44 44 42 42 39 40 41 40 41 38 34 34 32 36 31 27 27 27 27 27 26 26 25 25 26 27 27 28 28 30 33 34 37
46 45 45 45 47 47 47 45 45 44 44 44 44 43 39 35 36 36 35 28 28 27 26 28 27 27 25 25 26 27 28 28 30 31 33 34 37 37
50 49 48 50 50 50 50 48 48 47 47 47 45 44 42 38 35 32 31 29 28 26 28 27 27 25 25 26 27 27 28 28 30 33 33 35 37 36
46 45 44 44 44 44 44 46 48 46 45 46 43 40 39 33 31 35 32 30 28 29 26 27 25 25 25 26 27 28 28 31 32 34 36 36 36 36
43 43 45 44 42 42 43 40 42 43 41 41 40 38 34 37 31 30 31 28 27 29 26 25 25 26 26 26 26 29 31 32 34 36 36 36 36 36
38 41 42 43 39 39 41 38 34 35 35 33 32 32 32 32 31 32 28 27 26 28 26 24 25 26 26 26 28 30 31 33 36 36 37 36 36 35
33 32 36 44 41 41 37 43 39 41 36 39 37 33 31 31 33 30 26 26 26 27 26 25 26 26 26 28 30 31 32 33 35 36 37 37 36 35
36 34 34 35 37 39 38 38 40 37 37 39 36 34 33 33 30 25 26 26 26 26 26 26 26 26 27 29 32 34 34 36 37 37 37 37 35 36
40 39 36 37 35 38 34 33 36 38 39 35 37 32 31 32 29 27 26 25 25 26 27 26 26 28 30 32 34 36 36 38 38 38 38 36 35 36
31 33 38 40 40 38 38 38 35 37 36 35 33 31 31 30 28 26 25 25 26 27 26 26 27 30 33 34 36 37 37 38 38 37 38 35 34 36
34 35 35 36 37 38 38 38 38 35 35 38 33 35 32 30 29 26 25 26 27 26 27 28 30 33 35 37 37 38 38 39 37 38 37 35 35 35
32 33 31 33 32 34 35 37 35 35 38 35 33 33 31 30 28 26 27 27 26 27 30 32 35 37 36 36 38 39 41 39 38 39 37 36 36 36
28 28 27 29 31 31 34 33 32 36 36 33 33 35 31 27 27 28 27 26 27 30 33 35 35 35 35 37 40 42 40 37 39 39 37 37 38 39
26 27 28 28 32 31 31 33 36 37 34 34 36 34 29 28 29 29 27 27 28 31 33 34 33 33 36 39 42 39 37 37 40 40 39 37 40 43
28 27 27 28 29 30 31 32 33 34 36 35 35 33 30 31 31 32 29 29 31 32 34 33 33 35 37 37 37 38 38 39 40 40 40 40 41 44
28 28 28 27 27 28 29 30 31 32 32 31 34 35 34 35 34 34 33 32 34 35 36 36 36 37 38 38 38 39 39 40 41 40 41 42 43 45
28 28 28 28 28 27 27 30 32 32 32 34 38 39 37 37 36 37 37 39 39 40 38 37 37 38 38 38 40 40 41 42 41 40 41 42 42 45
31 29 28 28 28 29 29 29 29 32 34 38 40 39 38 38 41 41 41 40 42 41 39 39 38 40 39 40 41 41 42 43 43 39 40 41 43 45

GFSNE_500_spd_105.txt.gz
Wind_Speed
52 48 46 44 43 38 37 42 46 42 36 38 38 36 37 39 40 39 39 37 34 35 34 33 30 28 25 24 26 24 24 22 20 20 21 20 19 18
59 56 57 53 50 47 47 43 44 42 43 43 42 41 42 40 41 40 37 33 35 35 34 32 29 26 23 24 26 24 24 23 22 21 22 21 21 20
50 53 52 51 47 45 42 43 43 47 44 45 48 44 45 45 40 35 33 34 34 34 33 31 28 25 24 26 26 25 24 24 23 22 23 22 22 22
55 57 56 52 51 50 50 50 50 48 48 47 46 45 43 41 38 36 36 37 36 33 32 31 28 27 26 26 25 25 24 24 24 23 25 23 23 24
53 55 57 56 53 50 53 51 50 50 48 46 44 41 42 41 40 40 39 39 36 32 30 31 28 27 26 27 25 25 25 25 24 24 25 26 26 26
47 49 46 45 45 47 47 47 48 47 45 44 45 43 43 44 43 42 41 39 36 33 33 32 27 27 28 28 26 24 25 25 25 25 26 27 27 29
45 47 50 50 50 47 48 49 46 45 44 46 48 46 43 44 44 46 42 40 37 35 33 30 29 27 28 29 27 25 24 25 25 25 26 26 28 30
47 46 46 48 50 51 50 51 51 49 48 49 48 48 49 46 45 44 42 39 39 34 30 32 28 27 28 29 27 25 24 25 25 26 26 28 30 32
43 43 42 43 44 47 48 49 48 50 48 45 44 45 44 44 45 44 37 35 34 36 32 30 28 27 28 28 26 25 25 25 25 26 28 30 32 33
41 41 42 42 41 42 45 45 45 45 40 37 42 43 40 41 36 37 33 32 36 30 30 30 27 27 28 27 26 26 25 25 26 27 29 31 32 33
43 42 40 39 36 36 38 40 42 41 36 38 35 35 37 35 35 34 36 37 27 32 32 28 26 27 27 27 26 26 26 27 27 28 30 32 34 34
40 40 40 40 35 34 34 34 40 36 39 39 44 38 37 35 37 32 34 29 32 35 31 26 25 27 27 27 27 27 27 27 28 30 32 35 36 36
37 38 37 37 39 36 36 36 35 36 42 40 35 35 34 34 36 36 31 34 34 33 27 27 26 28 28 27 27 28 29 28 29 32 35 37 37 37
37 35 35 35 33 37 38 36 40 37 38 35 33 35 34 34 37 34 34 32 33 30 28 27 28 29 27 27 29 30 29 30 32 34 36 37 38 37
38 36 36 34 33 32 34 39 41 39 37 36 33 33 33 34 33 29 32 35 32 29 28 28 28 28 26 28 30 31 31 33 34 35 36 38 39 38
39 36 35 34 33 34 34 33 36 37 36 36 37 35 32 33 32 32 33 30 30 29 28 27 28 27 27 30 32 34 34 34 33 36 39 40 38 39
38 35 34 32 32 31 31 31 33 32 31 32 38 35 35 34 34 33 33 30 29 28 28 29 27 26 28 32 36 36 34 34 35 38 41 38 37 39
35 34 33 31 29 29 28 28 31 31 31 33 32 34 36 34 34 36 33 30 29 29 30 28 26 29 33 34 35 34 33 35 38 38 36 37 38 39
34 33 33 31 30 28 29 29 32 33 33 34 37 36 37 35 37 35 32 30 30 30 30 29 29 29 30 32 32 33 34 35 35 34 36 37 39 40
32 32 32 30 30 30 30 31 31 30 29 31 31 34 36 36 37 33 33 33 31 31 32 31 31 29 31 32 33 35 35 36 35 35 37 38 40 41
32 31 31 31 30 30 30 30 31 31 30 29 29 32 35 38 38 35 35 35 34 33 35 35 32 33 34 35 35 37 37 35 35 36 38 39 41 41
33 33 32 31 30 30 30 29 29 31 31 30 30 31 32 33 34 33 35 37 39 40 39 41 38 38 39 39 38 38 39 38 36 37 40 40 41 41
30 32 34 34 32 32 31 30 29 29 31 31 31 32 32 33 33 32 34 38 42 43 43 42 41 41 41 42 40 39 39 39 39 39 40 40 41 41

GFSNE_500_spd_108.txt.gz
Wind_Speed
53 52 50 49 52 53 54 50 45 42 37 40 42 40 39 42 41 43 42 42 40 38 37 32 29 30 30 30 26 24 24 24 21 19 22 19 18 18
53 52 51 48 46 48 47 47 45 50 52 46 44 43 42 44 45 45 44 41 41 37 33 30 31 28 31 29 26 25 24 24 24 22 20 19 20 19
48 46 46 46 46 45 47 49 48 47 47 45 41 44 47 46 45 44 43 41 38 32 32 32 33 31 30 28 27 26 26 25 25 23 21 20 21 21
42 43 44 46 48 48 50 51 52 49 51 51 49 52 52 52 46 43 42 39 37 35 34 32 33 31 31 29 28 27 26 24 25 24 23 21 21 22
40 40 42 42 43 45 49 49 53 54 54 54 56 54 52 44 44 43 44 44 41 38 33 31 31 30 29 30 29 27 27 25 25 24 24 23 22 22
40 41 41 42 44 44 46 49 51 51 51 50 51 51 46 49 46 45 47 46 41 37 34 34 29 32 32 31 28 27 26 26 25 24 23 23 23 22
42 44 45 48 50 49 47 48 48 49 51 52 52 47 45 46 44 44 47 45 40 39 38 34 30 31 31 29 30 26 26 27 25 24 23 23 23 23
46 48 47 47 45 44 44 45 44 44 46 47 48 47 48 48 47 46 47 45 41 38 35 36 34 32 29 33 27 28 26 27 25 24 23 23 23 24
47 49 48 47 45 43 42 43 44 43 43 45 45 44 43 41 36 36 38 36 35 35 34 29 28 31 35 30 27 26 27 26 26 24 23 23 24 25
47 47 47 46 44 42 43 42 41 40 40 40 41 41 38 34 33 32 33 34 35 32 32 33 35 32 28 27 27 26 27 26 26 24 24 24 25 27
44 45 45 45 43 41 40 40 40 38 38 39 37 37 38 32 36 33 35 32 32 35 32 30 33 28 30 29 27 25 26 27 26 25 25 25 26 29
44 46 45 44 43 40 41 39 39 37 35 36 38 35 35 34 37 39 38 33 33 34 32 32 30 29 32 27 24 25 27 27 26 26 26 26 29 31
47 47 47 44 43 39 37 37 37 37 39 34 37 39 34 36 38 27 28 32 32 35 32 33 31 31 31 26 24 27 28 27 27 27 27 29 31 32
49 51 47 44 40 40 39 37 34 33 37 37 38 34 31 33 30 29 26 27 32 37 36 32 33 35 30 28 27 28 28 27 28 28 29 32 33 32
47 46 44 42 42 41 38 36 33 32 32 33 37 39 37 32 26 26 27 30 34 37 34 31 34 32 29 30 29 29 28 29 30 29 31 34 32 32
42 42 42 42 40 39 36 35 34 32 33 30 31 32 32 31 26 29 30 29 30 32 30 31 32 29 29 29 29 29 29 30 30 31 34 33 32 35
41 42 41 38 36 35 34 33 32 31 28 29 28 26 25 25 28 32 30 30 33 32 30 30 29 28 28 29 29 29 30 31 32 34 33 32 34 36
38 39 37 36 34 32 32 31 30 30 29 26 25 29 28 29 30 29 32 32 28 29 30 27 28 29 29 29 29 29 31 32 32 30 30 32 33 32
36 36 36 34 32 31 31 30 29 29 29 29 30 29 30 30 28 30 32 32 31 28 29 30 30 30 30 30 29 31 30 30 29 29 31 32 34 32
35 34 34 33 33 31 29 29 29 29 30 32 32 31 30 29 28 29 30 31 30 31 34 34 34 32 30 32 32 32 30 29 30 31 32 33 33 34
32 32 34 34 33 32 31 29 29 28 29 30 32 33 33 32 31 30 30 31 30 31 36 37 36 32 32 36 36 34 32 32 32 34 34 35 35 35
32 31 31 31 32 33 33 32 30 28 28 29 30 30 32 32 32 32 31 30 30 33 37 39 39 38 38 39 39 40 38 38 36 36 37 36 36 36
33 33 33 33 33 31 30 30 32 32 30 28 29 31 30 30 31 31 30 31 33 35 37 40 41 40 41 40 41 42 42 41 40 39 38 37 37 38

GFSNE_500_spd_111.txt.gz
Wind_Speed
47 48 50 52 51 50 49 47 46 42 40 39 40 43 44 49 54 46 46 40 42 42 41 39 35 36 36 28 24 24 25 24 21 20 18 22 19 16
47 49 49 46 42 41 41 43 44 45 43 39 40 42 44 48 50 50 48 47 48 46 43 39 35 34 29 26 27 25 25 25 23 22 22 21 18 20
44 40 39 38 38 38 39 40 41 44 45 44 44 47 47 48 47 49 48 51 52 49 40 40 38 35 30 26 26 26 24 26 25 23 21 21 21 23
36 35 35 37 37 38 40 42 43 44 43 43 43 49 52 50 50 55 55 56 51 40 39 40 39 35 32 25 25 26 24 27 25 23 23 22 23 21
31 31 33 34 34 35 38 42 44 48 49 47 45 46 47 49 51 48 49 51 50 42 38 38 39 42 35 21 27 25 27 26 26 25 24 24 23 22
32 34 36 37 38 40 44 46 48 47 46 46 45 45 45 46 47 48 44 47 45 38 40 37 39 42 37 25 26 28 26 27 28 25 25 24 24 22
35 36 39 39 41 43 46 49 49 48 46 44 42 40 40 40 42 44 42 42 36 37 38 37 37 36 33 27 26 28 27 29 29 23 23 25 24 23
39 40 41 42 43 46 48 48 48 47 47 45 43 41 41 41 41 41 39 38 37 33 33 34 30 31 28 28 28 28 29 31 26 24 23 24 24 24
43 45 45 45 47 50 49 46 45 45 45 44 43 41 40 40 40 37 35 32 28 29 29 29 29 29 30 30 32 30 32 26 29 22 24 25 25 25
47 48 47 47 49 47 46 45 45 45 44 41 41 40 38 38 39 37 35 35 31 29 31 31 31 29 30 28 30 31 34 32 25 22 25 25 26 26
50 50 50 50 47 47 44 45 46 44 43 42 39 38 36 36 36 34 35 37 34 34 33 32 31 31 32 34 33 33 28 24 23 23 26 26 26 27
52 51 49 47 47 47 46 47 48 45 40 40 39 36 35 35 33 36 41 29 34 36 34 31 32 31 26 31 35 30 28 27 23 25 27 26 27 27
51 48 46 46 47 48 49 49 46 42 40 40 38 34 35 37 34 34 37 33 32 28 26 27 28 30 30 32 28 29 29 27 25 28 27 26 27 27
46 45 46 48 49 50 49 48 45 42 39 38 36 32 29 34 35 36 30 26 27 26 23 26 28 30 35 28 26 31 30 28 28 28 27 26 27 28
45 45 46 47 46 46 47 44 41 40 36 35 33 33 32 30 30 33 33 26 22 23 25 31 33 35 32 29 32 34 32 29 28 28 26 27 28 28
43 44 44 42 42 42 42 41 38 36 33 32 32 31 31 28 27 27 28 24 23 26 26 28 28 31 30 31 31 32 29 28 28 29 27 29 30 31
41 41 39 39 39 39 38 37 35 33 31 30 30 30 29 30 26 24 23 22 24 27 28 28 29 27 29 27 29 28 27 28 30 29 27 30 32 33
39 39 37 37 36 36 36 35 33 31 30 28 28 28 28 28 26 27 27 28 30 25 26 29 26 28 27 27 30 28 28 29 30 28 29 31 32 30
39 39 37 35 35 35 33 32 31 29 27 27 27 28 28 28 30 29 30 28 27 26 26 27 26 28 32 31 30 29 30 30 29 28 29 29 31 28
37 36 34 33 33 33 33 32 31 29 28 27 27 28 27 28 30 32 31 30 30 27 25 24 26 28 31 31 33 33 29 31 31 31 30 29 30 31
37 34 33 32 31 30 29 28 30 30 29 28 27 26 27 28 29 31 32 34 33 31 29 28 29 28 32 35 36 37 35 35 35 35 33 32 31 32
37 35 34 32 30 27 27 28 29 29 28 28 28 28 27 26 28 29 30 31 32 33 31 29 29 32 36 38 39 39 39 37 38 39 39 38 36 34
39 37 38 36 34 33 31 31 32 32 31 30 29 28 29 29 28 28 28 30 31 30 31 31 32 31 35 38 40 41 42 43 43 43 44 43 40 39

GFSNE_500_spd_114.txt.gz
Wind_Speed
31 34 34 34 36 38 44 46 43 38 36 36 40 44 46 44 43 41 45 45 49 57 57 51 47 43 44 43 39 38 39 20 26 21 22 23 23 20
32 34 33 35 37 35 36 35 36 35 35 35 36 37 39 42 46 48 46 48 52 44 47 46 49 49 48 46 38 39 31 22 22 23 25 25 25 20
33 37 36 34 32 31 30 32 32 32 32 34 36 40 44 45 44 45 47 51 52 49 47 48 49 48 47 42 37 34 31 27 25 26 27 27 25 24
34 38 36 33 29 29 30 31 35 37 37 37 39 41 43 44 45 44 44 47 49 49 47 43 45 48 48 38 34 36 32 28 26 27 27 27 27 23
36 36 35 34 33 32 32 32 35 38 39 41 42 43 44 45 44 43 42 43 44 46 43 43 42 43 44 36 35 37 36 27 28 28 27 28 25 25
38 39 37 37 35 32 33 34 35 40 43 44 44 42 42 44 45 43 41 40 40 40 38 37 34 36 38 38 29 32 42 31 30 29 27 26 24 25
41 42 38 39 37 38 37 40 39 42 45 45 43 43 45 44 43 42 43 42 41 41 39 35 35 32 34 30 25 29 37 33 32 28 29 28 27 27
43 43 41 41 41 40 41 44 44 45 46 45 44 43 44 44 43 42 42 41 40 39 38 36 34 29 29 24 25 29 34 32 31 30 29 32 26 27
43 44 43 44 43 43 45 45 46 47 47 45 45 45 44 43 43 41 41 39 37 37 36 37 37 31 30 28 27 26 31 32 32 30 35 29 30 26
43 45 46 45 43 47 48 48 47 47 47 47 46 47 46 43 41 41 38 35 36 35 36 39 30 29 30 31 28 30 32 35 36 36 28 30 27 27
44 44 44 44 45 48 50 50 46 45 47 49 48 47 46 43 41 41 36 34 34 33 34 38 37 36 37 32 31 30 30 31 29 29 32 34 28 28
45 45 44 44 46 51 46 46 47 47 48 49 48 45 43 43 40 39 36 36 32 32 34 32 32 29 29 30 27 30 33 31 31 36 34 31 27 30
45 46 45 45 44 43 46 46 46 47 47 49 47 44 41 40 38 36 35 35 34 34 31 32 28 28 27 23 23 27 28 33 36 33 29 30 30 31
50 49 48 47 46 44 44 45 45 45 45 47 45 42 39 37 36 34 35 33 33 31 29 27 29 27 24 23 25 28 29 29 31 29 32 33 32 30
49 50 49 48 45 43 44 44 43 42 43 43 41 39 37 35 35 34 34 32 31 30 27 27 26 26 27 29 28 27 26 27 25 31 36 35 31 30
48 44 45 44 42 43 42 41 40 39 39 39 37 36 35 34 34 30 31 30 29 30 27 24 24 28 28 26 24 28 28 28 27 31 34 32 29 30
44 44 44 42 41 41 39 39 38 37 37 36 36 33 33 33 32 29 29 30 26 25 25 24 25 27 28 25 23 25 26 27 24 27 30 30 30 31
42 43 43 41 41 40 39 37 36 36 35 33 33 32 31 32 31 29 29 29 27 26 27 29 27 27 24 24 25 26 28 27 27 29 31 30 31 31
43 42 41 40 39 38 36 35 35 34 34 32 30 30 30 30 31 30 30 30 31 28 30 30 29 28 26 25 26 27 29 29 31 33 31 31 33 32
42 42 41 40 39 37 35 35 34 34 32 30 29 29 29 29 31 30 30 29 30 30 31 32 32 32 29 28 31 34 34 34 35 34 33 33 34 33
42 42 41 41 39 37 36 35 34 33 32 29 28 27 28 30 29 30 28 28 29 29 30 31 33 31 30 32 33 36 37 37 36 36 36 36 38 38
43 42 41 41 40 38 38 36 34 33 31 29 29 29 29 28 29 30 30 29 28 29 30 31 31 30 34 35 35 36 37 37 38 38 39 40 41 41
46 45 44 42 41 41 40 39 38 36 35 33 33 32 33 32 32 31 31 32 32 30 30 30 29 29 31 33 36 38 39 39 40 42 42 43 44 45

GFSNE_500_spd_117.txt.gz
Wind_Speed
18 18 19 21 22 22 24 28 30 30 30 29 28 31 33 38 40 42 43 43 42 41 44 50 52 51 46 43 40 39 40 40 41 38 35 32 26 28
23 23 23 23 24 23 26 28 30 29 26 29 28 30 33 35 39 42 43 43 43 44 43 45 48 50 46 45 44 41 38 38 42 39 33 27 25 31
24 26 26 26 24 24 26 28 28 29 29 29 30 32 35 38 42 44 44 44 45 45 44 43 44 46 42 41 40 38 37 40 41 32 28 26 26 30
27 28 28 28 27 28 29 30 31 34 32 31 31 34 34 37 40 41 42 44 44 44 42 42 41 39 40 41 38 37 39 42 32 31 33 31 31 31
31 31 30 30 29 32 33 34 36 37 36 34 35 36 37 38 39 41 43 43 42 42 42 41 40 41 40 37 31 33 37 33 29 28 32 31 32 33
34 32 32 33 33 34 35 38 40 40 40 38 39 38 38 38 39 44 44 43 43 41 40 40 39 39 39 37 35 33 34 34 32 31 36 32 35 34
34 34 36 37 38 37 38 42 43 41 43 43 43 43 42 40 39 41 44 46 44 41 40 39 37 37 36 35 37 37 36 31 31 34 40 35 39 33
38 39 40 41 41 42 42 46 45 45 45 45 46 44 43 40 39 41 43 44 43 41 40 38 35 35 35 36 38 34 33 28 29 32 40 38 34 30
42 43 44 44 44 45 45 46 47 48 47 48 47 46 42 41 40 42 45 44 44 41 39 35 34 33 32 33 35 31 31 27 30 34 37 37 36 33
47 47 46 44 46 46 46 47 48 47 46 47 47 45 45 42 41 42 44 43 42 41 37 32 32 31 31 33 30 31 28 27 24 32 38 36 34 36
48 47 45 46 45 47 47 46 47 46 47 47 46 45 44 42 42 43 43 42 40 39 37 32 31 29 30 29 27 30 27 27 26 29 32 34 37 34
47 47 48 45 44 45 46 45 43 44 46 43 43 45 44 43 42 44 43 41 38 37 35 32 34 34 29 32 27 23 25 26 26 27 31 27 30 38
43 44 45 46 44 46 46 47 44 43 43 43 42 44 43 42 43 43 41 38 37 36 33 30 33 34 31 27 24 23 19 21 24 25 23 26 27 30
46 48 47 43 45 45 48 47 47 45 42 41 41 41 42 41 42 41 38 37 36 35 33 32 31 32 31 27 24 22 19 20 23 24 27 29 31 32
47 46 46 51 52 51 50 52 46 43 40 38 39 39 38 38 39 38 36 35 34 33 32 30 31 30 30 26 25 24 23 23 22 22 26 24 27 32
51 52 52 49 46 43 43 42 41 42 40 36 37 37 36 36 36 35 35 34 32 31 31 28 29 28 29 26 25 26 25 23 23 26 25 22 25 29
47 47 45 44 43 43 42 41 40 40 39 37 37 36 35 35 35 33 33 32 31 29 28 30 28 26 26 27 27 27 25 24 23 23 24 24 26 29
46 45 44 44 40 39 40 40 40 39 38 36 36 36 35 35 33 31 31 31 29 29 29 29 29 27 27 29 28 28 26 25 24 24 25 25 26 27
44 40 42 41 39 40 40 39 38 37 37 37 37 36 35 34 33 30 29 30 30 28 28 29 31 30 32 31 31 30 28 25 27 29 30 30 30 29
44 42 42 41 40 40 39 39 38 38 38 38 37 36 35 33 32 31 29 29 29 28 28 29 30 31 29 31 32 33 32 30 31 31 33 33 32 32
45 43 42 41 40 40 40 40 39 39 39 39 38 37 36 34 32 30 29 29 29 29 28 28 27 27 28 29 31 33 34 35 35 36 35 35 35 36
46 44 43 43 43 43 42 42 41 40 40 40 39 37 36 34 32 31 31 31 29 29 30 29 28 27 28 30 31 32 33 35 38 39 39 39 38 38
49 48 47 46 47 46 45 45 45 43 42 42 42 40 38 37 36 34 34 35 35 33 32 31 31 29 28 30 31 31 32 34 38 38 38 41 42 41